GEFSCGP_con_maxscp_222.txt.gz
SCP
0 0 0 0 0 0 0 0 0 0 0 0 1 1 1 1 1 1 2 2 3 4 5 4 4 4 4 5 6 6 7 7 7 7 7 6 5 4 4 4 4 4 4 4
0 0 0 0 0 0 0 0 0 0 0 0 1 1 2 1 1 2 2 2 3 4 4 4 4 4 5 5 6 6 7 7 7 7 7 6 6 4 4 4 5 5 5 4
0 0 0 0 0 0 0 0 0 0 0 0 1 1 2 1 1 1 2 2 3 4 4 4 4 4 4 5 6 6 7 7 7 6 6 7 7 6 5 4 4 5 5 4
0 0 0 0 0 0 0 0 0 0 0 0 0 1 1 1 1 1 2 2 3 4 4 4 4 4 4 4 5 7 8 8 7 5 5 7 8 7 6 5 4 4 4 4
0 0 0 0 0 0 0 0 0 0 0 0 0 1 1 2 1 2 2 3 3 3 3 4 4 4 4 4 5 7 9 9 7 6 5 6 7 7 6 5 4 4 4 4
0 0 0 0 0 0 0 0 0 0 0 0 0 1 1 2 2 2 3 3 3 2 3 4 5 4 3 3 5 7 9 9 8 6 6 6 7 8 7 5 3 3 3 3
0 0 0 0 0 0 0 0 0 0 0 0 0 1 1 2 2 3 3 3 2 2 3 5 6 5 4 4 6 8 10 9 8 7 6 6 7 7 7 4 3 3 3 3
0 0 0 0 0 0 0 0 0 0 0 0 0 1 1 2 2 2 2 2 2 3 3 5 5 5 4 5 8 10 11 10 9 9 8 7 6 6 5 4 3 3 3 2
0 0 0 0 0 0 0 0 0 0 0 0 1 1 1 1 2 2 2 2 2 3 4 5 5 5 5 6 9 11 11 10 10 9 8 7 6 5 5 4 4 3 3 2
0 0 0 0 0 0 0 0 0 0 0 0 1 1 1 1 2 2 2 2 3 4 4 5 5 5 6 6 8 10 10 10 10 9 8 6 6 6 5 5 5 4 3 3
0 0 0 0 0 0 0 0 0 0 0 0 1 1 1 1 2 2 2 2 3 3 4 5 6 7 6 6 7 8 9 10 9 9 8 7 6 6 5 5 5 5 5 5
0 0 0 0 0 0 0 0 0 0 0 0 1 1 1 1 2 3 3 3 3 4 5 6 7 7 7 7 7 7 8 9 8 8 8 7 6 5 5 5 4 5 6 6
0 0 0 0 0 0 0 0 0 0 0 0 1 1 1 2 3 3 4 4 5 5 6 7 9 11 11 9 8 8 8 8 8 7 7 7 6 6 5 5 5 5 6 7
0 0 0 0 0 0 0 0 0 0 0 0 1 2 2 2 3 4 6 7 7 7 8 10 15 17 14 11 10 10 10 8 7 7 7 7 7 7 6 6 7 7 7 7
0 0 0 0 0 0 0 0 0 0 0 1 2 2 3 3 4 5 8 9 9 9 10 12 16 16 13 11 11 12 11 9 8 7 7 6 6 6 7 8 10 10 7 6
1 1 0 0 0 0 0 0 0 0 0 1 2 3 4 4 5 6 9 11 10 10 10 11 13 13 12 10 10 10 10 8 8 7 6 6 5 6 7 9 10 9 7 5
1 1 1 1 0 0 0 0 0 0 1 1 2 4 6 5 5 6 8 10 11 10 9 9 11 12 12 10 9 9 8 8 7 7 6 5 5 5 7 8 8 7 6 5
2 2 2 1 1 0 0 0 0 1 1 2 3 5 6 6 6 6 7 9 12 13 12 10 10 12 11 10 9 9 8 8 7 6 5 5 5 5 7 8 8 6 5 5
2 2 2 1 1 1 0 0 1 1 2 3 4 5 6 7 7 8 8 10 16 20 19 14 11 10 10 10 10 10 9 8 7 6 5 6 6 7 8 10 9 7 6 5
1 1 1 1 1 1 1 1 1 1 2 4 5 6 7 7 8 9 11 15 22 27 24 18 13 10 11 12 12 12 10 9 7 7 7 7 7 9 10 10 9 6 5 5
1 1 1 1 1 1 1 1 1 2 3 5 6 6 7 8 9 12 16 23 30 30 24 18 15 14 14 14 14 13 11 10 9 9 10 10 10 10 10 9 7 6 5 5
1 1 1 1 2 2 3 3 3 4 6 6 6 6 7 9 13 18 23 29 31 27 20 16 15 16 15 14 13 13 12 12 13 13 13 12 10 9 8 8 7 7 6 6
1 1 2 2 4 5 6 6 6 7 8 8 7 7 8 12 19 23 24 25 23 20 16 14 13 13 13 11 11 12 13 14 14 13 12 10 9 8 8 8 8 7 6 6
3 3 3 5 6 7 7 7 7 8 9 9 8 8 10 15 22 22 19 17 15 13 12 11 10 10 9 8 9 11 12 13 12 10 9 9 9 8 7 6 6 5 4 4
5 5 6 7 9 9 8 7 7 7 9 10 9 10 13 18 21 18 14 11 10 9 9 9 8 7 6 7 9 10 10 9 7 6 6 7 8 6 4 3 3 2 1 1
6 7 9 10 12 11 9 7 7 7 9 9 9 11 16 20 19 15 11 8 7 7 7 7 6 6 6 8 9 10 9 8 6 5 5 6 7 4 2 1 1 1 0 0

GEFSCGP_con_maxscp_228.txt.gz
SCP
0 0 0 0 0 0 0 0 0 0 0 1 1 1 1 2 2 3 3 3 4 4 3 3 3 2 2 2 2 2 2 2 2 2 2 2 2 2 2 2 1 1 1 1
0 0 0 0 0 0 0 0 0 0 0 1 1 1 2 2 3 3 3 3 3 3 3 3 2 2 2 2 3 3 2 2 2 2 2 2 2 2 2 2 1 1 1 1
0 0 0 0 0 0 0 0 0 0 0 1 1 1 2 3 3 3 3 3 3 3 3 2 2 3 3 3 3 3 3 3 3 3 3 3 3 3 2 2 1 1 1 1
0 0 0 0 0 0 0 0 0 0 0 1 1 1 2 2 3 3 4 4 3 2 2 2 2 3 3 4 4 4 3 3 4 4 4 5 4 3 2 2 2 1 1 1
0 0 0 0 0 0 0 0 0 0 0 0 0 1 1 2 3 3 4 4 3 2 2 2 3 4 4 5 5 5 4 4 5 5 5 5 4 3 3 2 2 1 1 1
0 0 0 0 0 0 0 0 0 0 0 0 0 0 1 1 2 3 3 4 4 3 3 3 3 4 6 7 7 7 6 5 6 6 6 5 4 3 3 3 2 1 1 1
0 0 0 0 0 0 0 0 0 0 0 0 0 0 0 1 2 2 3 4 4 4 3 3 3 4 7 9 10 9 8 6 6 6 6 4 3 3 3 3 2 2 1 1
0 0 0 0 0 0 0 0 0 0 0 0 0 0 1 1 2 2 3 4 4 4 3 3 3 4 6 9 12 12 10 7 6 6 5 4 3 3 3 2 2 1 1 1
0 0 0 0 0 0 0 0 0 0 0 0 0 0 1 1 2 2 2 3 4 4 3 3 3 3 4 7 11 13 12 9 7 6 5 4 3 3 2 2 2 1 1 1
0 0 0 0 0 0 0 0 0 0 0 0 0 0 1 2 2 2 2 3 4 4 3 3 3 3 3 6 11 14 13 11 8 7 5 4 3 3 2 2 1 1 1 1
0 0 0 0 0 0 0 0 0 0 0 0 0 0 1 2 2 2 3 3 4 4 4 3 4 4 4 8 14 16 15 12 10 8 6 5 4 3 2 2 2 1 2 2
0 0 0 0 0 0 0 0 0 0 0 0 0 1 2 3 4 4 4 5 5 4 4 4 4 5 6 11 16 17 15 12 11 9 7 5 4 3 2 2 2 2 2 2
0 0 0 0 0 0 0 0 0 0 0 0 0 1 2 4 6 6 6 6 6 5 5 5 5 5 7 11 16 17 15 13 12 10 8 6 5 3 2 2 2 2 2 2
0 0 0 0 0 0 0 0 0 0 0 0 0 1 2 3 5 7 8 7 7 6 6 6 6 6 7 10 15 17 16 14 12 10 8 6 5 3 3 2 2 2 2 2
0 0 0 0 0 0 0 0 0 0 0 0 0 1 1 2 5 8 9 9 9 9 8 8 8 8 7 9 12 15 15 14 12 10 8 6 4 3 3 2 2 2 2 2
0 0 0 0 0 0 0 0 0 0 0 1 1 1 1 2 4 7 10 11 11 11 11 10 10 9 7 7 8 11 12 12 11 10 8 6 4 3 3 2 2 2 2 2
0 0 0 0 0 0 0 0 0 1 1 1 1 2 2 3 5 8 10 12 14 13 12 10 9 8 6 6 6 7 9 9 9 9 8 6 5 3 3 3 3 2 2 2
0 0 0 0 0 0 0 1 1 1 1 1 2 3 5 6 8 10 12 15 16 15 13 11 9 7 7 6 6 7 7 8 8 8 8 6 5 4 3 3 3 3 2 2
0 0 0 0 0 0 1 1 2 2 1 2 4 5 7 8 10 12 13 16 18 18 17 16 13 10 9 8 8 8 8 9 9 8 7 6 5 4 4 4 4 3 2 2
0 0 0 0 0 0 1 2 2 2 2 3 5 6 7 9 10 11 12 14 18 21 22 21 17 13 11 10 9 9 9 9 9 8 7 6 6 5 5 4 4 3 3 3
1 0 0 0 0 0 1 2 2 2 2 4 6 7 8 9 10 12 13 15 18 23 26 24 19 14 12 11 10 9 8 8 8 7 7 7 7 6 5 4 3 4 4 4
1 0 0 0 0 1 2 2 3 3 4 5 7 9 10 11 12 14 17 19 20 24 27 24 19 14 12 11 10 8 7 7 7 8 8 8 7 5 4 3 3 3 3 4
1 1 1 1 1 2 3 4 5 6 7 8 9 10 12 14 16 18 21 21 21 22 24 23 19 15 12 9 8 8 7 7 8 8 8 7 6 3 2 1 1 1 2 2
2 2 3 3 4 4 5 6 8 10 11 11 11 12 14 16 19 21 23 23 20 19 20 20 17 14 10 8 7 7 7 7 8 7 7 5 3 2 1 0 0 0 0 1
2 3 4 5 5 5 6 8 10 13 14 13 12 12 14 17 21 23 24 24 20 17 15 15 14 11 9 7 7 7 7 7 6 6 5 3 2 1 1 0 0 0 0 0
2 3 4 5 5 5 6 8 10 13 15 14 12 11 13 18 22 23 24 24 20 15 13 12 11 9 8 7 7 6 6 6 5 4 3 2 2 1 1 0 0 0 0 0

GEFSCGP_con_maxscp_234.txt.gz
SCP
0 0 0 0 0 0 0 0 0 0 0 0 0 0 0 0 0 0 0 0 1 1 1 1 1 1 1 1 1 1 1 1 1 1 1 1 1 1 1 1 1 1 1 1
0 0 0 0 0 0 0 0 0 0 0 0 0 0 0 0 0 0 0 0 1 1 1 1 1 1 1 1 1 1 1 1 1 1 1 1 1 1 1 1 1 1 1 1
0 0 0 0 0 0 0 0 0 0 0 1 1 1 1 1 0 0 1 1 1 2 1 1 1 1 1 1 1 1 1 1 1 1 1 1 1 2 1 1 2 1 1 1
0 0 0 0 0 0 0 0 0 0 0 1 1 1 1 1 1 1 1 1 2 2 1 1 1 1 2 2 2 2 1 1 1 1 1 2 2 2 2 2 2 1 1 1
0 0 0 0 0 0 0 0 0 0 0 0 1 1 1 1 1 1 1 2 1 1 1 1 1 2 2 2 3 3 2 2 1 1 1 2 2 2 2 2 2 2 1 1
0 0 0 0 0 0 0 0 0 0 0 0 0 1 1 1 1 1 2 2 1 1 1 1 2 2 2 3 3 3 3 3 2 2 2 2 2 2 3 2 2 1 1 1
0 0 0 0 0 0 0 0 0 0 0 0 0 0 0 0 0 1 2 2 2 1 1 2 2 2 3 3 4 4 4 4 3 3 3 3 2 2 2 2 2 1 1 1
0 0 0 0 0 0 0 0 0 0 0 0 0 0 0 0 0 1 2 2 2 2 2 2 2 2 2 3 4 5 5 5 4 4 4 4 3 3 2 2 1 1 1 1
0 0 0 0 0 0 0 0 0 0 0 0 0 0 0 0 1 1 2 2 2 2 2 2 2 1 1 2 4 6 6 5 5 5 5 5 4 3 2 2 1 1 1 1
0 0 0 0 0 0 0 0 0 0 0 0 0 0 1 1 1 1 2 3 3 3 2 2 1 1 1 2 4 6 6 6 6 6 6 6 4 3 2 2 1 1 1 1
0 0 0 0 0 0 0 0 0 0 0 0 0 0 1 2 2 1 2 3 3 3 3 2 1 1 1 2 3 6 7 6 5 5 6 6 5 4 3 2 1 1 1 1
0 0 0 0 0 0 0 0 0 0 0 0 0 0 1 2 2 2 2 3 3 3 2 2 1 1 2 2 3 6 7 6 5 5 5 5 5 4 3 2 2 1 1 1
0 0 0 0 0 0 0 0 0 0 0 0 0 0 1 1 2 2 2 3 3 2 2 2 2 2 2 2 3 5 7 6 6 5 5 5 4 4 3 2 2 1 1 1
0 0 0 0 0 0 0 0 0 0 0 0 0 0 1 1 1 2 2 3 2 2 3 3 3 3 3 3 3 5 6 7 7 7 6 5 4 3 3 2 2 1 1 1
0 0 0 0 0 0 0 0 0 0 0 0 0 0 1 1 1 1 2 3 3 2 4 5 4 3 3 3 4 5 6 7 8 8 7 5 4 3 3 2 2 1 1 1
0 0 0 0 0 0 0 0 0 0 0 0 0 0 1 1 1 2 2 3 3 3 4 5 5 4 4 4 4 4 5 6 8 9 7 5 4 3 3 2 2 2 2 2
0 0 0 0 0 0 0 0 0 0 0 0 0 1 1 1 1 2 3 3 4 4 4 5 5 4 4 5 5 5 5 6 7 8 7 5 4 3 3 3 3 3 2 2
0 0 0 0 0 0 0 0 0 0 0 0 0 1 1 1 2 2 3 4 4 4 5 6 7 6 5 5 5 4 4 5 6 6 6 5 4 3 3 3 3 3 2 2
0 0 0 0 0 0 0 0 0 0 0 1 1 1 2 2 2 3 3 4 4 4 5 7 8 7 6 6 5 5 4 4 4 5 5 4 4 3 3 3 3 3 3 3
0 0 0 0 0 0 0 1 1 0 0 1 2 3 3 3 2 3 4 5 5 5 6 7 8 8 7 7 7 6 4 4 4 4 5 5 4 4 4 4 3 3 3 3
0 0 0 0 0 0 0 1 1 0 1 1 3 4 5 4 3 3 5 6 6 7 7 8 8 8 8 8 8 7 5 4 4 5 6 6 6 6 6 5 5 5 5 5
0 0 0 0 0 0 1 1 1 1 1 2 3 5 7 5 4 4 6 7 8 9 9 10 9 8 8 8 8 7 5 4 5 5 6 6 6 6 5 5 4 5 5 6
0 0 0 1 1 1 1 3 3 3 2 2 3 5 8 6 4 5 7 9 10 10 11 11 11 9 7 7 7 6 5 4 5 6 5 4 4 3 3 3 2 2 3 3
0 0 1 1 1 1 2 3 5 5 3 2 3 5 7 6 5 6 8 11 12 12 12 11 10 9 7 6 6 5 4 4 5 5 4 3 1 1 1 1 1 1 1 1
0 1 1 1 1 1 2 3 4 5 4 3 4 5 6 6 6 7 8 11 13 13 12 11 9 7 6 5 5 4 4 4 5 4 3 2 1 1 0 0 0 0 0 0
0 1 1 1 1 1 1 2 3 4 4 4 3 4 5 6 6 6 7 10 11 12 11 10 8 6 5 4 4 3 4 5 5 3 2 1 1 1 1 0 0 0 0 0

GEFSCGP_con_maxscp_240.txt.gz
SCP
0 0 0 0 0 0 0 0 0 0 0 0 0 0 0 0 1 1 1 1 1 1 1 1 1 1 1 1 1 2 2 2 2 2 1 1 1 2 2 2 2 2 2 2
0 0 0 0 0 0 0 0 0 0 0 0 0 1 1 1 1 1 1 1 1 1 1 1 1 1 1 1 2 2 2 2 2 2 2 1 2 2 2 2 2 2 2 2
0 0 0 0 0 0 0 0 0 0 0 0 0 1 1 1 1 1 1 1 1 1 1 1 1 1 1 2 2 2 2 2 3 2 2 1 2 2 2 3 3 2 2 2
0 0 0 0 0 0 0 0 0 0 0 0 0 0 1 1 1 1 1 1 1 1 1 1 1 1 1 2 2 2 2 3 3 3 2 2 2 2 2 3 3 3 2 2
0 0 0 0 0 0 0 0 0 0 0 0 0 0 0 1 1 1 1 1 1 2 2 1 1 2 2 2 2 2 2 3 3 3 3 2 2 2 3 3 3 3 2 2
0 0 0 0 0 0 0 0 0 0 0 0 0 0 0 0 1 1 1 1 2 2 2 1 2 3 3 2 1 2 2 2 2 2 3 3 3 3 3 4 3 3 2 2
0 0 0 0 0 0 0 0 0 0 0 0 0 0 0 0 0 1 1 1 2 2 2 2 3 4 4 3 2 2 2 2 2 2 2 3 3 4 4 4 4 3 3 2
0 0 0 0 0 0 0 0 0 0 0 0 0 0 0 0 0 1 1 1 1 1 1 2 3 4 4 2 2 2 2 2 3 3 3 3 3 4 4 5 5 5 4 3
0 0 0 0 0 0 0 0 0 0 0 0 0 0 0 0 1 1 1 1 1 1 1 2 3 4 3 2 2 2 3 3 3 3 4 4 4 4 4 6 6 6 6 5
0 0 0 0 0 0 0 0 0 0 0 0 0 0 0 0 1 1 2 2 1 1 2 2 3 3 3 2 2 3 3 3 3 3 4 4 4 5 5 6 7 8 7 6
0 0 0 0 0 0 0 0 0 0 0 0 0 0 0 0 1 1 2 2 2 2 2 2 3 3 3 3 2 3 3 3 3 3 4 4 5 5 6 6 7 8 8 7
0 0 0 0 0 0 0 0 0 0 0 0 0 0 0 1 1 1 2 2 2 2 2 3 3 3 3 3 3 3 3 3 3 3 4 4 5 6 6 6 7 8 7 6
0 0 0 0 0 0 0 0 0 0 0 0 0 0 1 1 1 1 2 2 2 2 2 3 3 3 3 3 3 4 3 3 4 4 4 4 5 5 5 6 7 7 6 5
0 0 0 0 0 0 0 0 0 0 0 0 0 0 1 1 1 2 2 3 2 2 2 3 3 3 3 3 4 5 4 4 4 4 4 4 4 5 5 6 7 7 5 4
0 0 0 0 0 0 0 0 0 0 0 0 0 0 1 1 2 2 3 3 2 2 2 3 3 3 4 4 5 5 5 5 4 4 5 5 6 6 6 6 6 6 5 4
0 0 0 0 0 0 0 0 0 0 0 0 0 0 1 2 2 3 3 3 2 2 2 3 3 4 4 5 6 6 5 5 5 5 5 6 7 7 6 6 6 6 5 4
0 0 0 0 0 0 0 0 0 0 0 0 1 1 1 2 2 3 3 3 2 2 3 4 4 4 5 5 6 6 6 5 5 5 6 8 8 7 6 5 5 5 4 4
0 0 0 0 0 0 0 0 0 0 0 1 1 1 1 1 2 2 3 3 3 3 4 4 5 5 5 6 6 6 6 6 7 7 8 8 9 8 7 6 5 4 4 4
1 1 0 0 0 0 0 0 0 0 1 1 2 2 2 2 2 3 3 4 4 4 4 5 5 5 6 7 7 7 7 7 9 9 9 10 10 9 8 7 6 4 4 5
1 1 1 0 0 0 0 1 1 1 1 1 2 3 3 3 3 3 3 4 5 5 5 6 6 6 7 8 8 7 7 8 10 11 11 12 12 10 9 8 7 5 5 5
1 1 1 1 1 1 1 1 1 1 1 1 2 3 3 4 3 3 4 5 6 6 7 7 8 8 8 8 8 8 8 9 11 13 13 14 13 12 11 10 8 6 6 6
0 0 0 1 1 1 2 2 1 1 2 2 2 2 3 4 4 5 5 7 8 9 10 11 11 10 9 8 8 8 9 10 12 14 14 14 14 13 12 11 10 8 8 7
1 1 1 1 1 2 2 2 2 2 2 2 3 3 3 3 5 7 10 12 14 15 16 16 15 14 11 9 9 10 11 11 12 13 13 13 14 13 12 11 10 9 8 8
1 1 1 1 1 2 2 2 2 3 3 4 4 5 4 4 6 10 15 18 19 19 19 17 16 15 14 13 13 13 12 11 11 11 12 12 12 11 10 8 7 6 5 5
2 1 1 2 2 2 2 3 3 3 4 5 6 5 5 4 6 10 15 17 17 17 16 14 13 15 16 17 15 14 12 11 11 11 11 10 9 8 7 5 4 3 2 2
2 2 2 2 2 3 3 3 4 4 5 6 7 6 4 4 6 8 12 13 13 12 12 11 12 14 16 15 13 12 12 12 13 13 11 9 7 6 5 4 2 1 1 1

GEFSCGP_con_maxscp_246.txt.gz
SCP
0 0 0 0 0 0 0 0 0 0 0 0 0 1 1 1 1 1 1 2 2 2 2 2 2 2 3 4 6 6 4 4 5 6 5 4 3 3 3 3 4 4 3 3
0 0 0 0 0 0 0 0 0 0 0 0 0 1 1 1 1 1 1 2 2 2 2 2 2 2 3 4 6 6 5 4 5 5 5 4 3 3 3 3 4 4 3 3
0 0 0 0 0 0 0 0 0 0 0 0 0 1 2 2 1 2 2 2 2 2 3 3 2 2 3 4 6 6 6 6 6 5 5 4 3 3 3 3 3 4 3 3
0 0 0 0 0 0 0 0 0 0 0 0 0 1 1 2 2 2 3 3 2 2 3 3 2 3 4 4 5 7 8 8 7 6 5 4 3 3 3 3 3 4 3 3
0 0 0 0 0 0 0 0 0 0 0 0 0 0 1 2 2 3 3 3 3 3 3 3 3 3 4 4 5 8 10 11 10 8 6 5 4 3 3 4 4 4 4 3
0 0 0 0 0 0 0 0 0 0 0 0 0 0 1 1 2 3 3 3 3 3 4 4 3 4 5 4 4 8 12 14 12 10 7 6 5 4 4 4 4 4 4 3
0 0 0 0 0 0 0 0 0 0 0 0 0 0 1 1 2 3 3 3 3 3 4 4 4 5 4 4 4 6 11 13 13 10 8 7 6 6 5 5 5 4 4 4
0 0 0 0 0 0 0 0 0 0 0 0 0 1 1 2 2 3 3 4 4 4 4 4 4 4 4 3 4 5 7 10 10 10 9 7 7 7 7 7 6 5 5 5
0 0 0 0 0 0 0 0 0 0 0 0 0 1 1 2 3 3 3 4 4 4 4 4 4 3 3 3 3 4 5 7 7 8 8 7 7 8 8 8 7 6 6 6
0 0 0 0 0 0 0 0 0 0 0 0 0 1 1 2 3 3 3 3 4 5 5 5 4 3 3 3 3 4 5 6 6 6 7 7 8 8 8 8 8 8 8 9
0 0 0 0 0 0 0 0 0 0 0 0 0 0 1 2 3 3 3 3 4 6 6 5 5 4 4 4 4 4 5 6 6 6 7 8 7 6 6 7 8 9 10 11
0 0 0 0 0 0 0 0 0 0 0 0 0 0 1 2 2 3 3 3 5 5 5 5 6 5 4 4 4 4 5 6 6 6 7 7 6 5 5 5 7 9 11 12
0 0 0 0 0 0 0 0 0 0 0 0 0 1 1 2 2 3 4 4 4 4 4 6 7 6 5 6 6 6 6 7 8 7 7 6 5 5 5 5 7 10 11 11
0 0 0 0 0 0 0 0 0 0 0 0 0 1 1 2 3 4 4 4 4 4 6 8 9 8 7 8 9 9 9 10 10 8 6 5 5 6 7 7 8 11 12 11
0 0 0 0 0 0 0 0 0 0 0 0 1 1 2 2 4 5 5 4 4 5 8 11 11 10 9 10 11 10 11 12 11 8 6 5 5 8 9 9 10 12 13 12
1 1 0 0 0 0 0 0 0 0 0 0 1 2 2 3 4 7 6 5 5 6 8 11 11 10 10 10 11 10 11 11 9 7 6 5 6 8 11 11 11 13 13 13
1 1 1 0 0 0 0 0 0 0 1 1 2 2 2 3 5 7 7 6 5 6 7 8 9 9 8 9 10 10 10 9 8 7 6 6 7 9 11 11 12 13 13 13
1 1 1 1 0 0 0 0 0 1 1 2 3 3 3 4 6 7 6 6 7 7 8 8 8 8 7 7 8 9 8 8 8 7 7 9 11 11 11 11 12 13 13 13
1 1 1 1 0 0 0 1 1 2 2 3 3 3 4 4 5 6 6 6 7 9 10 10 10 11 9 8 8 9 9 9 9 9 10 12 14 14 13 13 14 14 13 12
1 1 1 0 0 0 1 1 2 2 2 2 3 4 5 4 5 6 6 6 8 11 13 12 12 13 12 11 11 11 11 11 11 12 14 15 15 15 17 18 17 15 13 11
1 1 1 1 1 1 1 2 2 3 3 3 4 5 6 6 6 7 8 8 10 13 15 15 15 15 15 14 13 13 13 13 14 15 15 15 15 18 21 22 20 17 13 11
1 1 1 1 1 1 2 3 3 4 5 4 5 6 7 7 7 8 9 9 11 13 16 17 17 16 15 15 15 15 15 15 15 15 15 15 18 21 24 25 22 18 14 11
1 1 1 1 2 2 3 3 4 5 6 6 5 6 8 8 8 9 9 9 10 11 14 17 18 17 15 16 17 16 15 16 16 16 15 17 20 24 25 24 21 17 14 12
1 1 1 2 3 3 3 4 4 6 7 7 6 7 8 8 8 8 9 10 10 11 12 15 18 18 16 17 18 17 16 16 17 17 17 18 22 23 22 19 15 13 12 12
1 2 2 3 4 4 4 4 4 5 6 7 7 8 8 8 8 7 9 12 17 19 17 17 18 19 18 17 17 17 17 17 19 19 19 19 20 19 16 13 10 8 9 9
2 2 2 3 4 5 4 3 3 4 6 8 9 9 9 8 7 6 8 14 23 27 24 20 19 19 19 17 16 16 17 19 21 21 21 20 17 16 14 11 8 6 6 6

GEFSCGP_con_maxscp_252.txt.gz
SCP
0 0 0 0 0 0 0 0 0 0 0 0 0 1 2 2 2 2 2 2 1 1 1 2 2 2 3 3 3 3 4 3 3 3 3 3 2 1 1 1 1 1 1 1
0 0 0 0 0 0 0 0 0 0 0 0 0 1 1 2 2 2 2 2 2 2 2 2 3 3 3 3 3 3 4 3 3 3 3 3 2 2 1 1 2 2 1 1
0 0 0 0 0 0 0 0 0 0 0 0 0 0 1 2 3 3 3 3 2 2 2 3 3 3 3 3 3 3 3 3 3 4 4 3 3 2 2 2 2 2 2 1
0 0 0 0 0 0 0 0 0 0 0 0 0 0 1 1 2 3 3 3 2 2 2 3 4 3 3 3 3 3 3 3 4 5 5 4 3 2 2 2 2 2 1 1
0 0 0 0 0 0 0 0 0 0 0 0 0 0 0 1 2 3 3 2 2 2 2 3 4 4 3 3 3 2 2 3 4 5 5 4 3 3 3 2 2 2 2 1
0 0 0 0 0 0 0 0 0 0 0 0 0 0 0 1 2 3 3 2 2 2 3 4 4 3 3 3 3 3 3 3 4 5 5 5 4 4 3 3 3 2 2 2
0 0 0 0 0 0 0 0 0 0 0 0 0 0 0 1 2 3 3 3 4 4 4 4 4 3 3 3 4 3 3 3 4 5 5 4 4 4 3 3 3 3 3 3
0 0 0 0 0 0 0 0 0 0 0 0 0 0 1 1 3 4 4 6 7 6 6 5 4 3 3 3 3 3 3 3 4 5 5 4 4 4 3 2 2 3 3 3
0 0 0 0 0 0 0 0 0 0 0 0 0 0 1 2 3 3 5 7 8 7 6 5 4 3 3 3 3 3 3 3 4 5 5 5 4 3 2 2 2 2 3 4
0 0 0 0 0 0 0 0 0 0 0 0 0 1 1 2 2 3 4 6 7 7 5 5 4 4 4 3 3 3 3 3 4 5 6 5 3 2 2 2 1 2 3 3
0 0 0 0 0 0 0 0 0 0 0 0 0 0 1 1 2 2 3 5 6 6 5 5 4 4 4 3 3 3 3 4 5 5 5 4 2 2 2 2 1 1 2 3
0 0 0 0 0 0 0 0 0 0 0 0 0 0 1 1 2 2 3 4 6 6 5 4 4 4 3 3 3 3 3 4 4 4 4 4 3 2 2 2 1 1 2 2
0 0 0 0 0 0 0 0 0 0 0 0 0 1 1 2 2 3 4 6 6 5 4 4 4 3 3 3 3 3 3 4 4 4 4 4 3 2 2 2 1 1 2 2
0 0 0 0 0 0 0 0 0 0 0 0 1 1 2 2 3 4 6 6 5 4 4 4 4 3 3 3 3 3 3 4 4 5 5 4 3 3 2 1 1 1 2 2
0 0 0 0 0 0 0 0 0 0 0 0 1 1 2 2 3 5 7 6 5 4 4 4 4 3 3 4 4 4 4 5 5 6 5 4 3 3 2 2 1 2 2 2
0 0 0 0 0 0 0 0 0 0 1 1 1 2 2 3 4 5 6 6 5 5 5 6 5 4 4 4 4 5 5 6 6 6 6 5 4 3 2 2 2 2 3 3
0 0 0 0 0 0 0 0 1 1 2 2 2 2 3 4 4 5 5 5 5 5 6 7 6 5 4 4 5 6 7 7 7 6 6 5 4 3 3 3 3 4 4 4
0 0 0 0 0 0 0 1 1 2 3 4 3 3 5 5 5 5 4 5 5 5 6 7 6 6 6 6 7 8 9 8 7 6 5 5 5 4 4 4 4 5 5 5
0 0 0 0 0 0 0 1 2 3 5 6 5 5 6 6 6 5 4 5 5 5 6 6 6 8 10 10 11 12 11 9 7 6 6 5 5 5 5 5 5 6 6 6
0 0 0 0 0 0 1 1 2 3 4 6 6 6 6 6 5 4 4 5 5 5 6 7 9 11 12 13 14 13 11 9 8 7 7 7 7 6 6 6 6 7 7 7
0 0 0 0 0 0 1 1 1 2 3 3 4 5 6 5 5 5 6 6 7 7 8 10 11 12 12 14 14 12 10 9 9 9 9 9 8 8 7 7 7 8 8 7
0 0 0 0 0 0 1 1 1 1 2 2 3 4 5 6 6 8 10 11 10 10 12 15 15 13 13 14 14 12 10 10 11 11 10 10 9 9 8 8 9 9 8 7
0 0 0 0 1 1 1 1 1 1 2 3 4 5 6 8 9 11 12 14 14 15 19 22 21 18 17 16 15 13 13 13 13 12 10 9 9 9 9 10 11 11 9 8
1 1 1 1 1 1 1 1 2 2 3 4 5 7 8 9 11 12 13 14 17 22 27 30 28 24 21 19 17 15 15 14 13 12 10 9 9 10 11 12 13 12 10 8
1 1 1 1 2 2 2 3 4 5 6 6 8 9 9 9 10 12 13 14 17 26 33 35 33 28 23 19 16 15 15 15 14 11 10 9 9 10 11 12 12 11 9 7
1 1 2 1 1 2 2 4 6 8 9 10 10 9 9 8 9 11 12 13 16 24 34 39 36 30 24 18 15 15 15 16 14 11 9 8 8 9 10 11 10 9 7 6

GEFSCGP_con_maxscp_258.txt.gz
SCP
0 0 0 0 0 0 0 0 0 0 0 0 0 0 0 0 0 0 1 1 1 0 1 1 1 1 1 1 1 1 1 1 1 1 2 2 2 2 1 1 1 1 1 1
0 0 0 0 0 0 0 0 0 0 0 0 0 0 0 0 0 0 1 1 1 0 1 1 1 1 1 1 1 1 1 1 1 2 2 3 2 1 1 1 1 1 1 1
0 0 0 0 0 0 0 0 0 0 0 0 0 0 0 1 1 1 1 1 1 1 1 1 1 1 1 1 1 1 1 1 1 2 3 3 2 1 1 1 1 1 1 1
0 0 0 0 0 0 0 0 0 0 0 0 0 0 0 1 1 1 1 1 1 1 1 1 1 1 1 1 1 1 1 1 1 2 3 3 2 1 1 1 1 1 1 1
0 0 0 0 0 0 0 0 0 0 0 0 0 0 0 1 1 1 1 1 1 1 1 2 2 2 2 1 1 1 1 1 1 1 2 2 2 2 2 1 1 1 1 1
0 0 0 0 0 0 0 0 0 0 0 0 0 0 0 0 1 1 1 1 1 1 2 2 2 2 2 2 1 1 1 1 1 2 2 2 2 2 2 1 1 1 1 1
0 0 0 0 0 0 0 0 0 0 0 0 0 0 0 0 1 1 1 1 1 2 2 3 2 2 2 2 2 2 2 2 2 2 3 2 2 2 2 1 1 1 1 1
0 0 0 0 0 0 0 0 0 0 0 0 0 0 0 0 1 1 1 1 1 2 2 3 3 3 2 2 2 2 2 2 2 2 2 2 1 1 2 1 1 1 1 1
0 0 0 0 0 0 0 0 0 0 0 0 0 0 0 0 1 1 1 1 1 2 3 4 4 4 3 3 3 3 2 2 2 2 2 1 1 1 2 2 2 1 1 1
0 0 0 0 0 0 0 0 0 0 0 0 0 0 0 0 1 1 1 1 1 2 3 4 5 4 4 4 3 3 3 2 2 1 1 1 1 1 2 2 2 1 1 1
0 0 0 0 0 0 0 0 0 0 0 0 0 0 0 0 1 1 1 1 1 2 4 4 5 5 4 5 5 4 3 2 1 1 1 1 1 1 2 2 1 1 1 1
0 0 0 0 0 0 0 0 0 0 0 0 0 0 0 1 1 1 1 1 2 3 4 4 4 4 4 5 5 4 3 2 2 2 2 2 2 2 2 2 1 1 1 1
0 0 0 0 0 0 0 0 0 0 0 0 0 0 0 1 1 1 1 1 2 3 4 4 4 4 4 4 4 3 2 2 2 2 2 2 3 2 2 2 1 1 1 1
0 0 0 0 0 0 0 0 0 0 0 0 0 0 1 1 1 2 1 2 2 3 3 3 3 3 3 3 3 2 2 2 2 2 2 3 3 3 2 2 1 1 1 1
0 0 0 0 0 0 0 0 0 0 0 0 0 1 1 1 2 2 1 1 3 3 3 3 3 3 3 2 2 2 2 2 2 2 3 3 3 3 2 2 2 1 1 1
0 0 0 0 0 0 0 0 0 0 0 0 1 1 1 1 1 1 1 2 3 3 3 3 3 3 3 2 2 2 2 2 3 3 3 4 3 3 3 2 2 2 1 2
0 0 0 0 0 0 0 0 1 1 1 1 1 1 1 1 2 2 2 2 3 3 3 3 3 3 3 2 2 2 3 3 3 4 4 4 4 4 3 2 2 2 2 2
0 0 0 0 0 0 0 0 1 1 1 1 1 1 1 2 3 3 3 3 3 3 3 3 3 3 3 2 2 3 4 4 4 4 4 4 4 4 4 3 3 2 2 2
0 0 0 0 0 0 0 0 0 1 1 0 1 2 3 4 4 4 4 3 3 3 3 2 3 3 3 3 3 4 5 5 5 5 4 4 4 5 5 5 4 3 3 3
0 0 0 0 0 0 0 0 0 0 0 0 1 3 4 4 4 4 3 3 3 3 2 3 3 3 4 4 5 6 6 6 6 6 5 5 4 5 6 6 5 4 4 4
0 0 0 0 0 0 0 0 0 0 0 1 2 3 4 4 3 3 3 2 2 3 2 2 3 3 4 5 7 7 6 6 7 8 8 7 6 6 6 6 6 6 5 5
0 0 0 0 0 0 0 0 0 0 0 1 2 4 4 3 3 3 3 3 4 4 3 3 3 3 5 6 7 7 7 6 8 10 11 10 8 7 7 7 7 7 6 6
0 0 0 0 0 0 0 0 0 0 0 1 3 4 3 3 2 2 3 4 5 5 5 4 4 4 5 7 8 8 8 8 10 12 13 12 10 9 8 8 8 8 7 7
0 0 0 0 0 0 1 1 1 1 1 2 2 3 2 2 2 2 2 3 5 5 5 5 5 5 6 7 9 9 10 11 12 12 13 12 11 10 8 8 7 7 7 7
0 0 0 0 0 1 1 1 1 1 2 2 2 2 2 2 3 3 3 3 4 5 6 5 5 5 6 8 11 12 13 13 13 13 13 12 12 10 9 7 7 6 6 6
0 0 0 0 0 1 1 1 1 2 2 2 2 2 2 3 4 4 3 4 5 6 6 6 6 6 7 9 12 13 14 14 14 14 13 13 13 11 9 8 7 6 5 5

GEFSCGP_con_maxscp_264.txt.gz
SCP
0 0 0 0 0 0 0 0 0 0 0 0 1 1 1 1 1 1 1 1 1 1 1 1 1 1 1 1 1 1 1 1 2 2 2 2 2 2 3 2 3 2 2 1
0 0 0 0 0 0 0 0 0 0 0 0 1 1 1 1 1 1 1 1 1 1 1 1 1 1 1 1 1 1 1 1 2 2 2 2 2 2 2 2 2 2 1 1
0 0 0 0 0 0 0 0 0 0 0 1 1 1 1 1 1 1 1 1 1 1 1 1 1 1 1 1 1 1 1 2 2 2 2 2 2 2 2 2 2 1 1 1
0 0 0 0 0 0 0 0 0 0 0 0 0 1 1 1 1 1 1 1 1 1 1 1 1 2 1 1 1 2 2 2 2 2 2 2 3 3 2 2 2 2 2 2
0 0 0 0 0 0 0 0 0 0 0 0 0 0 1 1 1 1 1 1 1 1 1 2 2 2 2 2 2 3 4 4 3 2 2 2 3 3 3 3 2 2 2 2
0 0 0 0 0 0 0 0 0 0 0 0 0 0 0 1 1 1 1 1 1 1 1 2 2 2 3 3 3 4 5 5 4 3 2 2 2 2 2 2 2 1 1 1
0 0 0 0 0 0 0 0 0 0 0 0 0 0 0 1 1 1 1 1 1 1 2 2 3 3 4 4 4 5 5 5 4 3 3 3 2 2 2 2 2 1 1 1
0 0 0 0 0 0 0 0 0 0 0 0 0 0 0 0 1 1 2 2 1 2 3 4 4 4 5 5 4 4 4 4 4 4 3 3 3 2 2 2 2 2 2 2
0 0 0 0 0 0 0 0 0 0 0 0 0 0 0 1 1 1 2 2 2 3 4 5 5 6 5 5 4 3 4 4 4 4 4 3 3 3 2 2 2 2 2 2
0 0 0 0 0 0 0 0 0 0 0 0 0 0 0 1 1 2 2 2 3 4 5 6 6 6 6 4 3 3 3 3 3 4 4 4 4 4 3 3 3 3 3 3
0 0 0 0 0 0 0 0 0 0 0 0 0 0 1 1 2 2 3 3 5 6 7 7 7 6 5 4 3 3 3 3 3 3 4 4 4 6 6 5 5 4 4 3
0 0 0 0 0 0 0 0 0 0 0 0 0 0 1 1 2 2 3 5 7 9 9 7 6 5 4 3 3 3 4 4 4 4 4 4 5 8 8 7 7 6 4 3
0 0 0 0 0 0 0 0 0 0 0 0 0 1 1 1 2 3 5 7 9 9 8 6 5 4 3 3 3 4 4 5 5 5 4 4 6 8 10 9 9 7 5 3
0 0 0 0 0 0 0 0 0 0 0 0 0 1 1 1 2 3 6 8 8 7 6 5 4 4 3 4 5 6 7 7 7 6 5 4 6 9 12 12 11 8 5 4
0 0 0 0 0 0 0 0 0 1 1 0 0 1 1 2 2 4 5 6 5 4 4 4 4 4 5 6 7 9 10 11 9 7 5 5 6 10 14 15 13 9 6 4
0 0 0 0 0 0 0 0 0 0 0 0 1 1 2 2 2 3 4 4 3 3 3 3 4 5 6 7 9 11 12 13 11 8 6 5 6 9 13 15 13 10 7 6
0 0 0 0 0 0 0 0 0 0 0 0 1 1 1 2 2 2 3 3 3 3 3 3 4 4 5 7 8 10 12 12 11 9 7 6 6 8 11 13 12 9 8 7
0 0 0 0 0 0 0 0 0 0 1 1 1 1 1 1 2 2 3 3 4 4 4 4 4 4 5 6 8 9 10 11 10 9 7 6 6 7 9 10 10 10 9 8
1 0 0 0 0 0 0 1 0 1 1 1 1 1 1 1 2 3 5 6 5 5 4 4 4 5 6 8 9 10 11 11 10 10 8 7 7 7 8 9 10 10 10 9
0 0 0 0 0 0 0 1 1 1 1 1 1 2 1 1 2 4 6 6 5 4 3 4 4 5 7 9 11 13 14 13 11 10 9 8 9 9 9 10 10 11 10 9
0 0 0 0 0 0 0 1 1 1 1 2 2 2 2 2 3 5 6 5 3 3 3 4 4 5 7 9 11 13 14 12 10 8 8 9 10 10 11 11 12 12 11 10
0 0 0 0 0 0 1 1 1 2 2 2 2 2 2 3 5 6 4 3 3 3 3 3 4 5 6 8 10 10 10 9 7 7 7 9 10 10 11 13 14 14 13 12
1 1 1 1 1 1 1 2 2 2 2 2 2 3 3 4 5 4 3 2 3 3 4 3 4 5 7 8 7 7 7 6 6 6 7 8 9 10 11 12 13 14 15 15
1 1 1 1 1 1 2 2 3 3 3 2 2 3 3 3 3 3 2 3 3 4 5 5 5 6 8 8 7 7 7 7 6 6 7 8 9 10 10 10 10 11 13 14
1 1 2 2 2 2 2 3 3 3 3 2 2 2 3 3 2 2 3 3 4 5 6 6 6 8 10 10 10 9 8 8 7 6 7 8 10 10 10 9 8 8 9 10
1 1 2 2 2 2 2 3 3 3 2 2 2 2 2 2 2 3 3 4 4 5 6 6 7 9 10 12 11 10 9 8 7 7 7 8 10 11 11 9 8 7 6 5

GEFSCGP_con_maxscp_270.txt.gz
SCP
0 0 0 0 0 0 0 0 0 0 0 0 1 1 1 1 1 2 2 2 2 2 2 1 1 2 3 4 4 3 3 3 3 3 3 3 4 4 3 2 2 2 2 2
0 0 0 0 0 0 0 0 0 0 0 0 1 1 1 1 1 2 2 2 2 2 2 2 2 2 3 4 4 3 3 3 3 3 3 3 3 3 3 3 3 2 2 2
0 0 0 0 0 0 0 0 0 0 0 0 0 1 1 1 1 2 2 2 2 2 2 3 2 3 4 5 4 3 3 3 3 3 3 3 3 2 3 3 3 3 3 3
0 0 0 0 0 0 0 0 0 0 0 0 0 0 1 1 1 2 2 2 2 2 3 3 3 4 5 5 4 4 4 4 3 3 3 3 3 3 3 3 3 3 3 3
0 0 0 0 0 0 0 0 0 0 0 0 0 0 1 1 2 2 2 2 2 2 3 3 4 4 4 4 4 4 4 4 3 3 3 3 3 3 3 3 3 3 3 3
0 0 0 0 0 0 0 0 0 0 0 0 0 0 1 2 2 2 2 2 2 2 3 3 4 4 4 4 3 4 5 5 4 3 3 4 4 3 3 3 3 3 3 4
0 0 0 0 0 0 0 0 0 0 0 0 0 1 1 2 2 2 2 3 2 2 3 4 4 4 4 4 4 5 6 6 5 4 4 4 4 3 3 3 3 3 3 5
0 0 0 0 0 0 0 0 0 0 0 0 1 1 1 1 1 1 2 3 3 3 4 5 5 4 4 4 5 7 9 9 7 5 5 5 4 4 4 5 5 4 4 4
0 0 0 0 0 0 0 0 0 0 0 0 1 1 1 1 1 2 2 3 3 3 4 6 6 4 4 5 7 10 12 11 9 6 5 5 5 4 4 5 6 6 5 4
0 0 0 0 0 0 0 0 0 0 0 0 0 1 1 1 2 2 3 3 4 4 5 7 9 10 9 9 11 13 13 11 9 7 6 5 4 4 5 6 8 8 6 5
0 0 0 0 0 0 0 0 0 0 0 0 0 1 1 1 2 3 3 4 5 6 7 11 16 19 16 12 13 13 11 10 8 7 7 6 5 5 6 7 8 8 7 6
0 0 0 0 0 0 0 0 0 0 1 0 1 1 1 1 2 3 3 4 6 7 9 13 17 20 19 15 11 10 9 9 8 7 7 7 7 6 6 7 9 10 10 9
0 0 0 0 0 0 0 0 0 0 0 0 1 1 1 1 2 3 3 4 7 10 12 14 15 15 15 14 11 8 8 8 8 7 7 7 7 6 6 7 9 12 13 12
0 0 0 0 0 0 0 0 0 0 0 0 1 1 2 2 2 3 4 5 9 14 17 16 14 13 13 11 10 8 7 7 8 8 8 7 7 7 7 7 10 15 17 15
0 0 0 0 0 0 0 0 0 0 0 0 1 2 3 4 4 4 4 7 13 19 20 17 13 11 10 9 8 7 7 7 9 10 9 8 8 8 8 9 12 17 19 17
0 0 0 0 0 0 0 0 0 0 0 0 1 2 4 5 5 6 7 11 17 20 18 15 12 10 10 9 9 8 8 9 10 11 11 10 11 12 12 11 13 18 19 16
1 1 1 0 0 0 0 0 0 0 0 0 1 2 4 5 5 7 10 13 15 16 15 13 11 10 10 10 10 11 11 11 12 12 13 15 15 16 16 13 14 17 16 14
1 1 1 0 0 0 0 0 0 0 0 1 2 4 6 7 7 8 10 11 11 12 13 11 10 10 10 10 11 13 13 13 13 14 18 21 21 21 18 15 15 15 13 11
1 1 1 0 0 0 0 0 0 1 1 1 2 4 8 9 8 8 9 9 11 14 13 11 9 9 10 10 12 14 15 15 15 17 21 24 24 22 20 17 16 15 14 13
1 1 1 0 0 0 0 0 0 1 1 2 3 4 6 6 6 6 8 10 13 16 14 11 9 9 10 11 12 13 14 15 17 19 21 23 23 22 21 19 19 18 17 16
0 1 1 1 0 0 1 1 1 2 2 3 4 4 4 4 5 7 9 11 13 14 13 10 9 10 11 11 12 12 13 15 18 19 20 21 19 19 19 21 22 20 18 16
0 1 1 1 1 2 2 2 2 3 4 4 4 5 5 6 8 10 11 11 11 11 11 10 11 12 12 11 11 12 14 16 17 18 18 17 15 14 15 18 20 19 16 15
1 1 2 2 2 3 4 4 4 4 5 4 4 4 5 7 9 10 10 10 10 10 10 10 11 12 11 11 11 13 15 15 15 15 14 13 12 11 11 14 15 14 13 12
2 2 2 3 4 4 4 4 4 4 4 4 3 4 5 8 9 9 8 9 9 9 9 9 9 10 10 11 12 14 15 14 13 12 12 12 11 10 10 11 11 12 12 12
3 3 3 3 4 4 4 4 4 4 4 3 3 4 6 8 8 7 7 8 8 8 7 7 8 9 10 11 13 17 18 15 12 11 11 11 11 10 11 10 9 9 11 12
3 3 3 3 4 4 4 4 3 3 3 3 4 6 8 8 7 7 7 7 7 7 7 8 9 9 10 11 14 19 21 18 13 11 11 11 10 11 11 11 8 7 8 9

GEFSCGP_con_maxscp_276.txt.gz
SCP
0 0 0 0 0 0 0 0 0 0 0 0 1 1 1 1 1 1 1 2 2 2 2 3 3 3 3 3 3 3 3 2 2 1 2 2 2 1 1 1 1 1 1 1
0 0 0 0 0 0 0 0 0 0 0 0 1 1 1 1 1 1 1 2 2 2 3 4 4 3 3 3 3 3 2 2 1 1 2 2 2 1 1 1 1 1 1 1
0 0 0 0 0 0 0 0 0 0 0 0 1 1 1 1 1 1 1 2 2 2 3 4 4 3 3 2 2 2 2 2 1 1 2 2 1 1 1 1 1 1 1 1
0 0 0 0 0 0 0 0 0 0 0 0 0 1 1 1 1 1 1 2 2 2 3 4 4 3 3 2 2 2 2 2 2 2 2 2 1 1 1 1 1 1 1 1
0 0 0 0 0 0 0 0 0 0 0 0 0 0 1 1 1 1 1 2 2 3 3 4 3 3 3 2 2 2 2 2 3 2 2 2 1 1 1 1 1 1 1 1
0 0 0 0 0 0 0 0 0 0 0 0 0 0 0 1 1 1 1 2 3 3 3 3 3 2 2 2 2 3 3 4 4 4 3 3 2 2 2 1 1 1 1 1
0 0 0 0 0 0 0 0 0 0 0 0 0 0 0 0 1 1 2 2 3 4 4 3 3 3 3 3 3 4 5 6 6 6 4 4 3 3 2 1 1 1 1 1
0 0 0 0 0 0 0 0 0 0 0 0 0 0 0 1 1 2 2 3 4 5 4 3 3 3 3 3 3 4 7 9 10 8 6 5 4 3 3 2 2 1 1 2
0 0 0 0 0 0 0 0 0 0 0 0 0 0 0 1 1 2 3 4 4 4 4 3 3 3 3 2 3 5 9 13 14 12 9 6 4 3 3 3 3 2 2 2
0 0 0 0 0 0 0 0 0 0 0 0 0 0 1 1 1 2 3 4 5 5 4 3 3 3 3 4 5 8 11 15 16 13 9 6 3 3 3 4 4 3 3 3
0 0 0 0 0 0 0 0 0 0 0 0 0 0 1 1 1 2 3 4 6 7 7 6 5 6 7 8 10 13 14 14 13 10 7 5 4 3 3 4 4 4 3 3
0 0 0 0 0 0 0 0 0 0 0 0 0 0 0 1 1 2 3 4 6 8 10 9 9 11 13 14 15 15 14 11 9 7 6 5 5 3 3 4 4 4 4 4
0 0 0 0 0 0 0 0 0 0 0 0 0 0 1 1 1 3 5 6 7 8 10 11 12 14 15 15 14 13 11 8 7 6 6 5 4 4 3 4 4 4 4 5
0 0 0 0 0 0 0 0 0 0 0 0 0 0 1 2 3 4 6 7 7 8 9 10 11 11 11 10 9 8 7 6 5 5 5 4 3 3 3 4 4 4 5 6
0 0 0 0 0 0 0 0 0 0 0 0 1 1 1 2 4 5 6 7 7 7 8 8 9 8 7 6 5 5 5 5 4 4 4 3 3 3 3 3 3 4 6 7
0 0 0 0 0 0 0 0 0 0 0 1 1 2 2 3 5 6 6 6 6 6 6 6 7 7 5 4 4 4 4 4 4 4 4 3 3 2 3 3 3 4 6 7
0 0 0 0 0 0 0 0 0 0 1 2 2 2 3 4 5 6 6 6 6 6 5 5 6 5 4 4 4 5 5 4 4 4 4 4 4 4 4 4 4 4 5 6
0 0 0 0 0 0 0 0 0 1 2 2 2 3 4 5 6 5 4 5 6 6 5 5 5 4 5 5 6 7 7 6 5 4 4 5 6 6 6 7 6 5 5 5
0 0 0 0 0 0 0 0 1 2 3 4 4 4 4 5 6 5 4 4 6 6 5 5 4 4 5 6 8 9 9 9 7 6 5 7 9 9 10 10 9 7 5 5
0 0 0 0 0 0 1 1 1 2 4 5 5 4 4 4 4 4 4 5 6 7 7 7 6 6 6 8 10 11 11 10 9 9 8 10 12 12 12 12 10 7 6 6
0 0 0 0 0 1 2 2 1 2 3 3 3 3 3 3 3 4 5 7 8 9 10 10 10 9 8 10 12 13 12 11 11 11 12 13 13 13 13 11 9 7 6 5
0 0 0 0 0 1 2 2 2 1 2 2 2 3 4 4 5 5 6 8 10 11 11 12 12 11 10 10 11 12 11 11 11 12 12 12 12 12 11 9 8 7 6 5
1 1 1 1 1 2 2 2 2 2 2 2 3 4 5 5 6 7 8 9 10 11 11 11 11 10 9 9 9 9 9 9 10 11 11 11 10 10 9 8 8 8 7 7
1 1 2 2 2 2 2 1 2 2 3 3 4 4 4 5 6 7 8 9 10 9 8 8 7 7 7 7 8 8 8 8 9 10 11 11 11 11 10 9 9 9 8 8
1 1 2 2 2 2 1 1 2 3 4 5 5 4 4 4 5 6 7 9 10 9 8 7 6 5 6 6 6 8 9 9 9 10 11 12 13 13 11 10 9 8 8 7
1 1 1 1 1 1 1 1 2 3 4 6 6 5 4 5 5 6 6 7 9 10 9 7 6 5 6 6 6 7 8 9 10 11 12 13 14 14 12 10 8 7 6 6

GEFSCGP_con_maxscp_282.txt.gz
SCP
0 0 0 0 0 0 0 0 0 0 0 0 0 0 0 0 0 1 1 1 1 1 1 1 1 1 2 2 2 1 1 1 2 2 2 1 1 0 0 0 0 0 1 1
0 0 0 0 0 0 0 0 0 0 0 0 0 0 0 0 0 1 1 1 1 1 1 1 1 1 1 2 2 1 1 1 2 2 2 1 1 0 0 0 0 0 0 1
0 0 0 0 0 0 0 0 0 0 0 0 0 0 0 0 0 1 1 1 1 1 1 1 1 1 1 1 1 1 1 1 1 1 1 1 1 1 0 0 0 0 0 1
0 0 0 0 0 0 0 0 0 0 0 0 0 0 0 0 0 0 1 1 2 2 1 1 1 1 1 1 1 1 1 1 1 1 1 1 1 1 1 1 1 1 1 1
0 0 0 0 0 0 0 0 0 0 0 0 0 0 0 0 0 0 1 1 2 2 2 1 1 1 1 1 1 1 1 1 1 1 1 1 2 2 2 2 2 1 1 1
0 0 0 0 0 0 0 0 0 0 0 0 0 0 0 0 0 0 0 1 2 3 2 1 1 1 1 0 1 1 1 1 1 1 2 2 2 3 3 3 3 2 2 1
0 0 0 0 0 0 0 0 0 0 0 0 0 0 0 0 0 0 0 1 3 3 2 1 1 1 1 1 1 1 1 1 1 2 3 4 4 4 4 4 4 3 2 1
0 0 0 0 0 0 0 0 0 0 0 0 0 0 0 0 0 0 0 1 2 3 3 2 1 1 1 1 1 1 1 1 2 3 4 5 6 6 6 5 4 3 2 1
0 0 0 0 0 0 0 0 0 0 0 0 0 0 0 0 0 0 1 1 2 3 3 2 1 1 1 1 1 1 1 1 2 4 5 6 7 7 6 4 3 2 2 2
0 0 0 0 0 0 0 0 0 0 0 0 0 0 0 0 0 1 1 1 2 3 4 3 2 1 1 1 1 1 2 3 4 6 6 6 6 6 5 3 2 2 2 2
0 0 0 0 0 0 0 0 0 0 0 0 0 0 0 0 0 1 1 1 2 3 4 4 3 2 2 2 2 3 3 5 6 6 5 4 4 4 3 2 2 2 2 2
0 0 0 0 0 0 0 0 0 0 0 0 0 0 0 1 1 2 2 2 2 3 4 4 3 2 3 4 4 5 5 6 6 5 3 2 2 2 2 2 2 2 2 2
0 0 0 0 0 0 0 0 0 0 0 0 0 0 1 2 2 2 2 2 3 3 4 3 2 2 3 4 4 4 4 4 3 3 2 2 1 1 2 2 2 2 2 2
0 0 0 0 0 0 0 0 0 0 0 0 0 0 1 2 2 2 2 2 3 3 3 2 2 2 2 3 3 3 3 2 2 2 2 2 2 1 1 1 2 2 2 2
0 0 0 0 0 0 0 0 0 0 0 0 0 0 1 1 2 2 2 2 3 3 2 2 2 3 3 3 3 3 3 2 2 2 2 2 2 2 1 1 1 2 2 2
0 0 0 0 0 0 0 0 0 0 0 0 0 0 1 1 2 2 2 2 3 3 3 3 3 3 4 4 4 4 3 3 2 2 2 2 2 2 1 1 1 1 1 1
0 0 0 0 0 0 0 0 0 0 0 0 0 0 1 2 2 2 2 3 3 4 4 4 3 3 4 4 4 4 4 4 3 2 2 2 2 2 1 1 1 1 1 1
0 0 0 0 0 0 0 0 0 0 0 0 1 1 2 3 3 3 3 4 4 4 4 4 3 3 3 4 4 4 4 4 4 3 2 2 2 2 2 2 2 2 2 2
0 0 0 0 0 0 0 0 0 0 0 1 1 2 3 4 4 4 5 5 4 4 3 3 2 2 2 2 3 3 4 5 5 4 3 2 2 2 2 2 2 2 2 2
0 0 0 0 0 0 0 0 1 1 1 1 2 3 4 5 5 5 6 5 4 4 3 2 2 2 1 2 2 3 4 5 6 5 4 3 3 3 3 4 3 3 2 2
0 0 0 0 0 0 0 0 1 1 1 1 2 4 5 5 5 5 5 5 4 4 4 3 2 2 1 1 2 2 4 6 7 7 6 5 4 4 4 5 4 3 3 2
0 0 0 0 0 0 0 0 1 1 1 2 3 4 5 5 5 4 4 3 3 4 4 4 3 3 2 2 3 3 4 6 8 9 8 6 5 4 5 5 5 4 3 3
0 0 0 0 0 0 0 0 0 1 1 2 3 4 5 4 4 3 3 3 3 3 3 3 3 3 3 3 4 4 4 5 7 9 9 7 6 6 6 6 6 5 5 4
0 0 0 0 0 0 1 1 1 1 1 2 3 4 4 4 4 4 4 3 3 3 2 2 3 3 3 3 3 3 3 3 5 7 8 8 7 7 7 7 7 7 6 6
0 0 0 0 0 1 1 1 1 1 1 2 3 3 3 4 5 5 5 4 3 3 2 2 2 2 2 2 1 1 2 2 3 5 6 6 6 7 7 7 7 7 7 6
0 0 0 1 1 1 1 1 2 2 2 2 2 3 3 4 5 5 5 4 3 2 2 2 2 1 1 1 1 1 2 2 3 5 5 5 5 6 7 7 6 6 6 5

GEFSCGP_con_maxscp_288.txt.gz
SCP
0 0 0 0 0 0 0 0 0 0 0 0 0 0 0 0 1 1 1 1 1 1 1 1 1 1 1 1 1 1 1 1 1 1 1 1 1 1 1 1 1 1 1 1
0 0 0 0 0 0 0 0 0 0 0 0 0 0 0 0 1 1 1 1 1 1 1 1 1 1 1 1 1 1 1 1 1 1 1 1 1 1 1 1 1 1 1 2
0 0 0 0 0 0 0 0 0 0 0 0 0 0 0 0 0 1 1 1 1 1 1 1 1 1 1 1 1 1 1 1 1 1 1 1 2 2 1 1 1 1 2 2
0 0 0 0 0 0 0 0 0 0 0 0 0 0 0 0 0 1 1 1 1 1 1 1 1 1 1 1 1 1 1 1 1 1 2 2 2 2 1 1 1 2 2 2
0 0 0 0 0 0 0 0 0 0 0 0 0 0 0 0 0 0 1 1 1 1 1 1 1 1 1 1 1 1 1 1 2 2 2 2 2 2 2 2 2 2 3 3
0 0 0 0 0 0 0 0 0 0 0 0 0 0 0 0 0 0 0 1 1 1 1 1 1 1 1 1 1 1 1 2 2 2 3 3 3 3 2 3 3 3 3 4
0 0 0 0 0 0 0 0 0 0 0 0 0 0 0 0 0 0 0 1 1 1 2 2 2 2 1 1 1 1 1 2 3 3 3 3 3 3 3 3 4 4 5 6
0 0 0 0 0 0 0 0 0 0 0 0 0 0 0 0 0 0 1 1 1 2 3 3 4 4 3 3 2 1 2 2 3 3 4 4 4 4 4 4 4 6 8 9
0 0 0 0 0 0 0 0 0 0 0 0 0 0 0 0 0 0 1 1 1 2 3 4 5 5 4 4 3 2 2 3 3 3 4 4 4 4 5 5 6 8 10 10
0 0 0 0 0 0 0 0 0 0 0 0 0 0 0 0 0 1 1 1 2 2 2 3 4 5 4 4 3 3 3 3 3 3 4 4 4 4 5 6 7 7 7 7
0 0 0 0 0 0 0 0 0 0 0 0 0 0 0 1 1 1 1 1 2 2 2 3 4 5 5 4 4 3 3 3 3 4 4 5 4 4 5 5 5 5 4 4
0 0 0 0 0 0 0 0 0 0 0 0 0 1 1 1 1 1 1 2 2 2 3 3 4 6 6 6 5 4 3 3 4 5 5 5 4 4 4 3 3 3 3 3
0 0 0 0 0 0 0 0 0 0 0 0 0 1 1 1 1 2 2 2 3 3 3 4 4 5 6 6 6 5 5 4 5 5 5 4 4 3 3 3 2 2 3 3
0 0 0 0 0 0 0 0 0 0 0 0 0 1 2 2 2 2 2 2 3 3 3 4 5 6 8 9 9 8 6 5 4 4 4 3 4 4 3 3 3 3 3 3
0 0 0 0 0 0 0 0 0 0 0 0 0 1 2 2 2 2 2 2 2 2 3 4 5 8 10 11 11 10 8 5 4 4 4 4 4 4 3 3 3 3 3 3
0 0 0 0 0 0 0 0 0 0 0 0 0 1 2 3 3 2 2 2 2 2 3 3 5 8 10 11 12 11 9 8 7 6 6 5 5 4 3 3 3 3 3 3
1 1 0 0 0 0 0 0 0 0 0 0 0 1 2 3 3 3 2 2 3 3 3 3 4 6 8 10 10 10 10 10 10 10 9 7 6 5 4 3 3 3 3 3
1 1 1 0 0 0 0 0 0 0 0 0 1 1 2 3 4 3 3 3 3 3 3 3 4 5 6 8 9 9 9 10 12 12 10 9 7 6 5 4 4 4 4 4
1 1 1 0 0 1 0 0 0 0 0 1 1 2 2 3 4 4 4 4 4 4 3 4 4 5 7 8 8 8 8 10 12 12 10 8 7 6 5 4 4 4 5 5
1 1 1 0 1 1 1 1 1 0 1 1 2 2 3 3 4 4 4 4 4 4 4 4 6 7 8 9 9 9 9 11 13 12 10 8 7 6 5 4 4 4 5 6
1 1 1 1 1 1 1 1 1 1 2 2 3 3 3 4 4 5 5 4 4 4 4 5 7 9 10 10 11 10 10 12 12 11 9 8 7 6 5 5 5 6 6 6
1 1 1 1 1 1 1 2 2 2 3 4 4 5 5 5 5 5 5 4 3 4 5 6 8 10 11 10 11 11 11 11 11 10 9 7 6 6 5 5 6 6 7 7
1 1 1 1 1 2 2 3 3 3 3 4 5 6 7 6 6 6 4 3 4 5 6 7 9 10 11 10 10 9 9 9 9 9 9 8 7 6 6 6 6 6 7 8
1 1 2 2 2 3 4 4 4 3 4 4 5 6 7 7 7 7 5 4 4 5 5 7 9 11 11 10 9 8 7 6 6 7 9 10 8 6 6 7 7 7 7 7
2 2 2 2 3 3 4 5 5 4 4 5 5 5 6 6 6 6 5 5 4 4 5 7 9 11 11 10 8 7 6 6 5 6 7 9 9 8 7 7 7 8 7 6
3 3 3 2 2 3 4 4 5 5 5 6 6 6 5 5 5 5 5 5 4 4 5 7 9 10 10 9 7 6 6 6 6 5 5 7 9 10 9 8 8 8 7 6

GEFSCGP_con_maxscp_294.txt.gz
SCP
0 0 0 0 0 0 0 0 0 0 0 1 1 1 1 1 1 1 2 2 2 2 2 2 2 2 2 3 3 3 3 3 3 2 2 2 2 2 2 3 3 3 2 2
0 0 0 0 0 0 0 0 0 0 0 1 0 1 1 1 1 1 1 2 2 3 3 3 2 2 2 3 3 3 3 3 3 3 2 2 2 2 2 3 4 3 3 3
0 0 0 0 0 0 0 0 0 0 0 0 0 0 1 1 1 1 1 1 2 3 3 3 3 2 2 2 2 3 3 3 3 2 2 2 2 2 2 4 5 5 5 5
0 0 0 0 0 0 0 0 0 0 0 0 0 1 1 1 1 1 1 1 1 2 3 3 3 3 3 2 2 3 4 4 3 3 2 2 2 2 2 4 5 6 6 6
0 0 0 0 0 0 0 0 0 0 0 0 0 0 1 1 0 0 1 1 1 2 3 3 4 3 3 3 4 6 7 7 6 5 4 3 3 2 3 3 5 7 7 6
0 0 0 0 0 0 0 0 0 0 0 0 0 0 1 1 1 1 1 1 1 2 3 4 5 6 6 6 7 9 10 9 8 7 6 5 5 4 3 4 5 6 6 6
0 0 0 0 0 0 0 0 1 0 0 0 0 1 1 1 1 1 1 1 2 2 4 6 8 10 10 9 7 8 9 10 9 9 9 8 7 5 4 4 5 6 6 6
0 0 0 0 0 0 0 0 0 0 0 0 0 1 2 2 1 2 2 2 3 3 4 7 9 11 10 8 6 6 8 9 10 11 12 11 9 7 5 5 6 6 6 6
0 0 0 0 0 0 0 0 0 0 0 0 0 1 2 2 1 1 2 2 2 3 3 5 7 8 7 7 6 6 7 9 9 11 12 12 10 8 7 7 7 8 9 10
0 0 0 0 0 0 0 0 0 0 0 0 0 1 1 2 1 1 1 2 2 2 3 4 6 6 7 7 8 8 8 7 7 8 10 10 10 9 9 9 9 11 13 15
0 0 0 0 0 0 0 0 0 0 0 0 0 1 1 1 1 2 1 2 2 3 3 5 6 8 9 10 10 9 8 7 7 7 8 9 9 10 10 9 9 10 12 12
0 0 0 0 0 0 0 0 0 0 1 1 0 1 1 1 2 2 2 2 3 4 5 6 6 8 10 10 10 9 9 8 7 7 7 7 8 8 9 8 7 7 7 7
0 0 0 0 0 0 0 0 0 0 1 0 0 1 1 2 2 2 2 3 5 6 7 6 7 9 10 11 10 11 12 10 9 8 7 5 5 6 6 6 6 6 5 5
0 0 0 0 0 0 0 0 0 0 0 0 1 1 2 3 3 3 3 4 5 6 7 6 7 10 11 12 12 14 14 13 10 8 7 6 5 5 6 7 7 6 5 4
0 0 0 0 0 0 0 0 0 0 0 0 1 1 2 3 3 3 3 4 5 6 6 5 7 9 12 14 15 17 17 15 11 9 8 8 7 7 8 8 7 6 5 4
0 0 0 0 0 0 0 0 0 0 0 0 1 1 2 3 3 3 5 6 7 7 5 5 6 9 13 16 18 19 18 14 11 10 9 9 9 9 9 9 8 6 5 4
1 1 1 1 1 1 0 0 0 1 1 1 1 1 3 3 3 5 7 8 8 7 6 7 8 12 15 17 18 17 15 13 13 12 11 10 11 11 10 9 8 7 5 4
2 2 2 1 1 1 1 1 1 1 1 1 1 2 3 4 5 7 10 10 9 8 8 10 12 14 14 14 14 13 12 13 14 15 15 15 15 13 11 9 8 7 6 5
3 3 2 1 1 1 1 1 1 1 1 1 2 2 3 4 6 9 11 11 10 9 9 11 12 11 11 10 10 10 10 13 16 19 21 23 21 16 12 10 9 8 7 6
2 3 2 1 1 1 1 1 1 1 2 3 3 4 4 5 7 10 12 11 10 9 9 9 10 9 10 11 12 12 12 14 19 25 29 29 25 18 13 11 10 8 7 6
2 3 2 1 1 1 1 2 2 2 3 5 6 6 7 8 10 11 10 9 9 9 9 10 11 12 13 14 15 14 13 16 23 30 32 29 23 16 12 11 10 8 7 6
2 2 2 2 2 2 2 3 3 4 4 5 6 8 9 11 12 11 9 9 10 10 11 12 14 16 16 14 13 12 12 16 23 29 29 24 18 14 11 10 9 9 8 7
1 1 2 2 3 4 4 5 4 4 4 5 7 10 11 12 12 11 10 11 12 12 11 12 15 15 14 11 10 10 11 13 18 23 24 20 15 11 9 9 8 9 8 7
1 1 2 4 5 6 6 5 5 5 5 7 10 12 12 12 11 11 11 12 13 12 11 11 12 12 11 10 10 11 11 13 15 17 17 15 12 9 9 8 7 7 7 7
1 2 3 5 6 7 7 7 7 8 9 11 12 12 11 10 10 10 11 11 11 11 10 9 9 9 10 10 10 10 11 13 14 13 12 10 9 9 8 7 6 6 6 6
2 3 4 5 6 7 8 10 10 11 11 12 12 11 10 10 9 9 9 10 10 10 9 8 8 9 10 11 10 9 10 12 12 12 10 10 9 8 8 7 5 4 4 4

GEFSCGP_con_maxscp_300.txt.gz
SCP
0 0 0 0 0 0 0 0 0 0 0 0 0 0 1 1 1 1 1 1 1 1 2 3 4 5 6 5 3 2 1 1 1 1 1 1 1 1 1 1 1 1 1 1
0 0 0 0 0 0 0 0 0 0 0 0 0 0 1 1 1 1 1 1 1 1 2 4 5 5 5 4 3 2 2 2 1 1 1 1 1 1 1 1 1 1 2 2
0 0 0 0 0 0 0 0 0 0 0 0 0 0 1 1 1 1 1 1 1 2 3 5 6 5 5 3 2 2 2 2 2 2 2 2 2 1 1 1 2 2 2 2
0 0 0 0 0 0 0 0 0 0 0 0 0 0 0 1 1 1 1 1 2 2 3 4 5 4 4 3 3 3 3 3 3 3 3 2 2 2 2 2 2 2 2 3
0 0 0 0 0 0 0 0 0 0 0 0 0 0 0 1 1 1 2 2 2 3 4 4 4 3 3 3 3 3 3 3 3 4 5 4 2 2 2 2 2 2 2 3
0 0 0 0 0 0 0 0 0 0 0 0 0 0 0 1 2 3 3 3 3 4 4 3 3 3 2 2 3 3 3 3 4 6 7 4 2 2 2 2 2 2 2 3
0 0 0 0 0 0 0 0 0 0 0 0 0 0 1 2 3 4 4 4 4 4 4 3 3 3 3 3 3 3 3 4 5 7 6 4 3 3 3 3 3 3 3 3
0 0 0 0 0 0 0 0 0 0 0 0 0 1 1 2 4 4 4 4 4 4 4 4 4 4 3 3 3 3 3 4 5 5 5 4 4 4 4 4 3 3 4 4
0 0 0 0 0 0 0 0 0 0 0 0 0 1 2 2 3 3 4 4 5 5 5 5 5 4 3 3 3 3 3 3 4 4 4 4 4 5 4 4 3 3 4 4
0 0 0 0 0 0 0 0 0 0 0 0 0 1 1 2 3 3 4 5 6 6 6 5 4 3 3 3 3 3 3 3 3 3 4 4 4 4 4 3 3 2 2 3
0 0 0 0 0 0 0 0 0 0 0 0 0 1 1 2 3 3 4 4 5 5 5 4 4 4 4 4 4 3 3 3 3 3 3 3 3 3 3 2 2 2 2 2
0 0 0 0 0 0 0 0 0 0 0 0 0 0 1 2 3 3 3 4 4 4 4 4 4 5 5 5 5 4 3 3 3 3 3 3 3 2 2 2 2 2 2 2
0 0 0 0 0 0 0 0 0 0 0 0 0 1 1 2 2 3 3 3 4 4 4 4 5 6 6 6 6 5 4 4 4 4 4 4 4 3 3 3 2 2 2 2
0 0 0 0 0 0 0 0 0 0 1 0 0 1 1 2 2 2 3 3 4 5 5 5 5 6 7 7 6 6 5 5 5 6 6 6 5 5 4 4 3 3 3 3
0 0 0 0 0 0 0 0 0 0 1 1 0 1 1 2 3 3 4 4 5 6 6 6 6 7 8 8 8 7 7 6 6 7 8 7 7 6 6 5 4 5 4 4
0 0 0 0 0 1 1 0 0 0 0 0 0 1 1 2 4 5 5 5 6 7 7 7 7 8 9 10 11 9 7 6 7 8 9 9 9 8 8 7 6 6 5 5
0 0 0 0 0 1 1 1 1 1 1 1 1 1 2 4 6 8 7 6 6 7 7 7 7 7 8 11 12 9 6 5 6 7 8 10 11 11 10 10 9 8 7 6
0 0 0 0 1 1 1 1 1 1 1 1 1 2 3 6 9 10 8 6 6 6 6 6 5 5 6 7 7 5 4 4 5 6 7 10 12 13 13 13 13 12 10 8
0 0 0 0 0 1 1 1 1 1 1 2 2 2 4 8 10 10 7 6 6 5 5 4 3 3 4 4 4 3 3 4 4 5 6 8 12 15 16 17 18 17 14 11
0 0 0 0 0 1 1 1 1 1 1 1 2 3 5 7 9 8 7 6 6 5 4 3 3 3 3 4 4 3 3 4 4 4 4 6 10 15 18 21 22 20 16 14
0 0 0 1 1 1 1 1 1 1 1 1 2 4 5 6 8 9 9 8 6 5 4 3 3 3 4 4 4 4 3 3 3 4 4 5 9 14 18 23 24 22 18 17
1 1 2 1 1 1 1 1 1 1 2 2 3 4 5 8 12 14 13 9 7 5 4 3 4 4 5 6 6 5 4 3 3 3 4 5 7 12 17 24 28 24 19 18
1 2 3 3 1 1 1 1 2 3 4 4 5 6 8 11 14 16 13 10 7 5 4 4 5 6 6 6 7 6 4 3 3 4 4 4 6 10 14 21 26 21 16 16
2 3 4 4 3 2 3 4 6 8 9 9 9 9 10 11 11 10 9 8 7 6 5 5 6 6 6 5 5 4 4 4 4 4 4 4 5 6 8 12 14 12 11 11
2 2 4 5 5 6 7 8 9 12 14 15 14 12 11 9 7 5 5 7 7 7 6 6 6 5 4 4 3 3 4 4 5 5 5 5 5 5 5 5 5 5 6 6
2 2 4 6 7 9 10 10 11 13 16 18 17 14 11 8 5 3 5 8 8 7 7 6 5 4 3 3 3 4 4 4 5 5 5 4 4 4 5 4 4 3 3 3

GEFSCGP_con_maxscp_306.txt.gz
SCP
0 0 0 0 0 0 0 0 0 0 0 0 0 0 0 0 1 1 1 1 0 0 1 1 2 2 2 2 2 1 1 1 0 0 0 0 0 0 1 1 1 1 1 1
0 0 0 0 0 0 0 0 0 0 0 0 0 0 0 0 1 1 1 1 1 0 1 1 2 2 2 2 2 1 1 1 1 1 1 1 1 0 0 1 1 1 1 1
0 0 0 0 0 0 0 0 0 0 0 0 0 0 0 0 0 0 1 1 0 1 1 1 2 2 3 2 2 1 1 1 1 1 1 1 1 1 0 0 1 1 1 1
0 0 0 0 0 0 0 0 0 0 0 0 0 0 0 0 0 0 0 0 0 1 1 1 2 2 2 2 2 1 1 2 2 2 2 1 1 1 1 0 0 1 1 2
0 0 0 0 0 0 0 0 0 0 0 0 0 0 0 0 0 0 0 1 1 1 1 1 1 2 2 2 2 2 2 2 2 2 2 2 1 1 1 1 1 1 1 2
0 0 0 0 0 0 0 0 0 0 0 0 0 0 0 0 1 1 1 1 1 1 1 1 1 2 2 2 2 2 2 2 2 2 2 2 1 1 1 1 1 1 2 2
0 0 0 0 0 0 0 0 0 0 0 0 0 0 0 1 1 1 1 1 1 1 1 1 1 2 2 2 2 2 2 2 2 2 2 2 2 1 1 1 2 2 1 1
0 0 0 0 0 0 0 0 0 0 0 0 0 0 1 1 1 1 1 1 1 1 1 1 1 2 2 2 2 2 2 1 2 2 2 1 2 2 2 2 1 1 2 2
0 0 0 0 0 0 0 0 0 0 0 0 0 1 1 2 1 1 1 1 1 1 1 1 2 2 2 2 2 2 2 2 2 1 1 1 1 1 2 2 1 2 2 2
0 0 0 0 0 0 0 0 0 0 0 0 0 0 1 1 1 1 1 1 1 1 1 1 2 2 3 3 3 2 2 2 2 2 1 1 1 1 2 2 2 2 2 1
0 0 0 0 0 0 0 0 0 0 0 0 0 0 0 1 1 1 1 1 1 1 1 1 1 2 3 3 3 3 2 2 2 2 2 1 1 2 2 2 2 2 2 2
0 0 0 0 0 0 0 0 0 0 0 0 0 0 0 1 1 2 1 1 2 2 1 1 1 2 3 4 4 4 3 2 3 3 2 2 2 2 2 2 2 2 2 2
0 0 0 0 0 0 0 0 0 0 0 0 0 0 1 1 2 2 2 2 2 2 1 1 1 2 3 4 5 4 2 2 3 3 3 3 3 3 3 4 4 4 3 3
0 0 0 0 0 0 0 0 0 0 0 0 0 0 1 1 2 2 2 2 2 2 2 2 2 2 2 4 4 3 2 2 3 3 4 4 4 5 5 5 6 6 5 5
0 0 0 0 0 0 0 0 0 0 0 0 0 0 1 2 2 3 2 2 2 3 3 3 2 2 2 3 3 2 2 2 2 3 4 4 5 6 6 7 7 7 7 7
0 0 0 0 0 0 0 0 0 0 0 0 0 0 1 2 2 3 2 2 3 3 3 3 3 3 3 3 2 2 2 2 2 2 3 3 4 5 6 7 8 8 8 8
0 0 0 0 0 0 0 0 0 1 0 0 0 0 1 1 2 3 3 3 3 3 4 4 4 3 3 2 2 2 3 3 3 2 2 2 3 3 4 6 7 8 9 9
0 0 0 0 0 0 0 0 0 1 1 0 0 0 1 2 2 3 3 4 3 3 4 5 4 3 2 2 3 3 3 3 3 3 2 2 2 2 3 4 5 6 8 8
0 0 0 0 0 0 0 0 0 1 1 1 1 1 2 2 3 3 4 4 3 3 4 4 4 2 2 2 2 3 3 3 2 2 2 2 3 2 2 3 3 4 6 7
0 0 0 0 0 0 0 0 0 1 1 1 1 2 3 3 3 3 4 4 4 3 3 3 3 2 2 2 2 2 2 2 2 2 2 2 3 3 3 3 3 4 5 5
0 0 0 0 0 0 0 0 0 1 1 1 1 2 3 3 3 3 5 5 5 5 4 3 2 2 2 2 2 2 2 2 2 2 2 2 2 3 3 3 3 4 4 4
0 0 0 0 0 0 0 0 0 0 1 1 1 3 3 3 3 4 6 7 7 6 4 3 2 2 1 2 2 2 2 3 3 2 2 2 3 3 3 3 4 4 4 4
0 0 0 0 0 0 0 0 0 0 1 1 2 3 4 4 4 6 7 8 7 5 3 2 2 2 1 1 1 2 2 3 2 2 2 3 3 4 4 4 4 4 5 5
0 0 0 0 0 0 0 0 0 0 1 2 4 4 4 4 5 7 7 8 6 4 3 3 2 2 1 1 1 2 3 3 2 2 2 3 3 4 4 4 4 4 5 5
0 0 0 0 0 1 1 1 1 1 2 4 4 4 4 5 7 8 8 7 6 5 4 3 2 2 1 1 2 2 2 2 2 2 2 3 3 4 4 4 4 4 4 4
0 0 0 0 0 1 1 1 2 2 3 5 5 4 4 6 8 9 9 8 6 5 4 3 2 1 1 1 2 2 2 2 1 1 2 2 3 4 4 3 3 3 3 3

GEFSCGP_con_maxscp_312.txt.gz
SCP
0 0 0 0 0 0 0 0 0 0 0 0 0 0 1 1 1 1 1 1 1 1 1 1 1 1 1 1 1 1 1 1 2 2 2 2 2 2 3 3 3 4 3 3
0 0 0 0 0 0 0 0 0 0 0 0 0 0 1 1 1 1 1 1 1 1 1 1 1 1 1 1 1 1 1 2 2 2 2 2 2 2 3 3 3 3 3 3
0 0 0 0 0 0 0 0 0 0 0 0 0 0 1 1 1 1 1 1 1 1 1 1 1 2 2 2 2 2 2 2 2 3 3 3 3 2 2 3 3 3 3 3
0 0 0 0 0 0 0 0 0 0 0 0 0 0 0 1 1 1 1 1 1 1 1 1 1 2 2 2 2 2 2 3 3 3 3 3 3 3 3 3 4 4 4 3
0 0 0 0 0 0 0 0 0 0 0 0 0 0 0 0 0 1 1 1 1 1 1 1 1 2 2 3 3 3 3 3 3 3 3 3 3 3 4 4 4 4 4 3
0 0 0 0 0 0 0 0 0 0 0 0 0 0 0 0 0 0 1 1 1 1 1 1 2 2 3 4 4 4 4 4 5 4 4 4 4 4 4 4 4 3 3 3
0 0 0 0 0 0 0 0 0 0 0 0 0 0 0 0 0 0 1 1 1 1 1 1 2 3 4 5 6 5 5 6 6 5 5 4 4 3 3 3 2 2 2 2
0 0 0 0 0 0 0 0 0 0 0 0 0 0 0 0 0 1 1 1 1 1 1 1 1 3 4 6 7 7 7 6 6 5 5 5 4 3 2 2 2 2 2 2
0 0 0 0 0 0 0 0 0 0 0 0 0 0 0 0 1 1 1 1 1 1 1 1 1 2 4 7 8 8 7 6 6 5 5 4 3 3 2 2 2 2 3 3
0 0 0 0 0 0 0 0 0 0 0 0 0 0 0 0 0 1 1 1 1 1 1 1 2 2 4 6 7 7 7 6 5 4 3 3 2 2 2 2 3 3 3 4
0 0 0 0 0 0 0 0 0 0 0 0 0 0 0 1 1 1 1 1 1 1 2 2 2 2 3 4 5 6 6 6 4 3 2 2 2 2 3 3 3 4 3 3
0 0 0 0 0 0 0 0 0 0 0 0 0 0 1 1 1 1 1 1 2 2 2 3 3 3 3 4 4 5 6 5 3 2 2 2 2 3 3 4 4 3 3 2
0 0 0 0 0 0 0 0 0 0 0 0 0 0 1 1 1 1 2 2 3 4 4 4 4 4 4 4 4 5 5 5 4 3 2 3 3 3 4 4 3 3 2 2
0 0 0 0 0 0 0 0 0 0 0 0 0 0 1 1 1 2 2 3 4 4 4 5 5 5 4 4 5 5 5 5 4 4 4 4 5 4 4 3 3 2 2 3
0 0 0 0 0 0 0 0 0 0 0 0 0 0 1 1 1 2 2 3 3 4 5 5 6 5 5 5 5 5 5 5 5 5 5 5 5 4 4 3 3 3 4 4
0 0 0 0 0 0 0 0 0 0 0 0 0 1 1 1 1 2 2 3 3 4 5 7 7 7 6 5 4 4 4 3 4 4 5 5 4 4 4 4 5 5 5 5
0 0 0 0 0 0 0 0 0 0 1 1 1 1 1 1 1 2 2 3 3 4 5 7 8 7 6 4 4 3 3 3 3 4 4 4 5 6 6 6 6 7 7 6
0 0 0 0 0 0 0 0 0 1 1 1 1 1 1 1 1 2 2 3 4 5 6 7 8 7 6 5 4 3 3 3 3 4 4 4 6 7 6 6 6 6 6 7
1 1 0 0 0 0 0 0 1 1 1 1 1 1 1 1 1 2 3 4 5 5 5 6 7 7 6 5 5 4 4 3 3 3 4 4 5 5 5 4 4 5 5 6
1 1 1 0 0 0 1 1 1 1 1 1 1 1 2 2 2 3 4 5 5 5 5 5 6 6 6 6 6 5 4 4 3 3 4 4 5 4 3 3 3 4 5 6
1 1 1 1 0 0 1 1 1 1 1 1 1 2 2 2 2 3 5 5 5 5 5 5 5 5 6 6 6 5 5 4 4 4 4 5 5 4 4 4 4 4 5 5
1 1 1 1 0 1 1 1 1 1 1 1 1 2 2 3 3 3 4 5 5 5 5 4 4 5 5 6 6 5 5 5 4 4 5 6 6 5 5 5 5 5 5 5
1 1 1 1 1 1 1 1 1 1 1 1 2 2 3 4 3 3 4 5 5 5 5 4 4 5 5 5 6 5 5 5 5 5 5 6 6 6 6 5 5 5 5 5
1 2 2 2 1 1 1 1 1 1 1 1 2 3 3 3 3 4 5 5 6 6 6 5 5 5 6 6 6 6 6 6 6 6 6 6 6 6 5 5 4 4 4 4
1 2 2 2 2 1 1 1 1 1 1 1 2 3 3 3 3 5 6 6 7 7 7 7 7 6 7 8 7 7 6 7 6 6 6 5 5 5 5 5 4 4 4 4
1 2 3 3 3 2 1 1 1 1 1 1 2 2 2 2 4 5 7 8 8 8 9 8 7 7 8 8 8 7 7 7 6 5 4 4 3 4 5 5 4 4 4 4

GEFSCGP_con_maxscp_318.txt.gz
SCP
0 0 0 0 0 0 0 0 0 0 0 1 1 2 2 2 2 2 3 2 2 2 2 2 2 3 3 3 4 4 4 3 3 3 3 3 3 3 4 4 5 6 7 8
0 0 0 0 0 0 0 0 0 0 0 1 1 2 2 2 2 2 3 3 2 2 2 2 3 4 4 4 4 4 4 4 4 3 3 3 3 4 4 5 5 6 7 8
0 0 0 0 0 0 0 0 0 0 0 1 1 1 1 1 1 2 3 3 3 2 2 2 3 5 5 5 5 5 5 5 5 5 5 4 5 5 6 6 6 6 7 7
0 0 0 0 0 0 0 0 0 0 0 1 1 1 1 1 1 1 2 3 3 2 2 3 4 5 6 6 6 6 6 7 7 7 7 6 6 6 7 7 6 6 6 5
0 0 0 0 0 0 0 0 0 0 0 1 1 1 1 1 1 1 2 2 2 3 3 3 4 6 8 8 7 7 8 10 10 10 9 8 7 7 8 8 7 5 4 4
0 0 0 0 0 0 0 0 0 0 0 0 0 0 0 1 1 1 1 2 2 2 3 3 4 6 8 9 7 8 11 12 12 10 10 10 9 9 11 10 7 4 3 2
0 0 0 0 0 0 0 0 0 0 0 0 0 0 0 1 1 1 1 1 1 2 3 3 4 6 8 8 7 8 11 13 12 11 11 12 12 12 12 10 6 3 2 2
0 0 0 0 0 0 0 0 0 0 0 0 0 0 1 1 1 1 1 1 1 2 2 3 4 5 6 6 6 8 12 14 13 13 12 13 13 12 10 8 5 3 2 2
0 0 0 0 0 0 0 0 0 0 0 0 0 1 1 1 1 1 1 1 2 2 2 3 3 4 4 5 6 9 13 14 14 13 13 13 12 10 8 6 4 3 3 4
0 0 0 0 0 0 0 0 0 0 0 0 0 1 1 1 1 1 2 3 3 3 3 3 4 4 5 5 6 10 14 14 13 12 11 11 10 9 7 5 4 4 6 8
0 0 0 0 0 0 0 0 0 0 0 0 0 1 1 2 2 2 3 4 4 4 3 3 4 5 6 7 8 12 15 14 12 12 10 8 7 7 6 4 5 7 10 11
0 0 0 0 0 0 0 0 0 0 1 1 0 1 2 2 2 2 3 4 5 4 3 3 3 5 6 8 10 14 15 13 12 13 11 8 6 5 5 5 7 10 12 12
0 0 0 0 0 0 0 0 0 0 0 1 0 1 3 3 2 3 3 4 4 4 3 3 4 5 6 9 12 13 13 12 13 14 12 8 6 6 7 8 9 11 11 10
0 0 0 0 0 0 0 0 0 0 0 0 0 1 2 3 3 3 3 3 3 4 5 7 8 9 9 10 11 12 10 10 13 14 12 8 7 8 9 9 10 10 9 8
0 0 0 0 0 0 0 0 0 0 0 0 1 1 2 3 3 4 4 3 3 4 7 10 11 12 12 11 10 10 10 11 12 13 11 9 9 10 10 10 9 8 7 7
0 0 0 0 0 0 0 0 0 0 1 1 1 2 2 2 3 4 4 4 4 5 7 11 12 12 12 11 10 10 10 11 12 12 11 11 11 11 10 9 8 7 6 5
0 0 0 0 0 0 0 0 0 1 1 1 2 2 2 2 3 3 4 5 5 5 7 10 12 11 10 10 10 10 10 10 11 11 11 11 10 9 8 8 7 6 6 5
0 1 0 0 0 0 0 0 1 1 1 2 2 2 2 2 3 3 4 5 6 6 7 10 12 11 10 10 10 11 10 9 8 8 8 8 8 8 8 8 7 7 7 7
0 1 1 1 0 0 1 1 1 1 2 2 2 3 3 3 3 4 5 6 6 7 8 10 12 12 11 11 11 12 10 8 6 6 7 7 7 8 8 8 8 7 8 8
0 1 1 1 1 1 1 1 1 1 2 2 2 3 3 3 4 5 6 7 8 9 10 11 12 14 13 12 12 10 8 7 7 7 8 8 8 8 8 8 8 8 9 9
0 0 0 0 0 1 1 1 1 2 2 2 2 3 3 4 5 6 7 8 10 11 11 11 12 13 13 12 11 9 7 7 8 8 8 9 8 7 7 7 8 9 10 10
0 0 1 1 1 1 2 2 2 2 2 2 2 3 5 6 6 7 8 9 11 12 11 10 11 12 12 11 11 10 9 9 9 9 9 9 8 7 6 7 9 10 10 11
1 1 1 1 2 3 3 2 2 2 2 2 2 4 6 7 7 8 9 10 11 12 10 9 9 10 11 11 11 11 11 10 9 10 10 9 8 8 8 9 9 9 10 10
1 1 2 2 3 4 4 4 3 2 2 2 3 5 6 6 7 9 11 11 11 10 9 8 9 11 13 13 12 12 11 9 8 9 9 9 9 10 10 9 7 7 7 8
1 2 2 3 3 4 5 4 3 3 3 3 4 4 5 5 7 9 12 12 11 10 9 9 12 15 16 16 15 13 11 9 8 9 10 11 11 10 9 7 5 4 5 5
1 1 2 3 3 4 5 4 3 3 3 3 4 4 4 4 6 9 12 13 12 10 10 11 15 18 19 19 18 14 11 9 9 10 12 13 12 10 7 5 3 3 2 2

GEFSCGP_con_maxscp_324.txt.gz
SCP
0 0 0 0 0 0 0 0 0 0 0 1 1 1 1 1 1 2 2 1 1 1 1 1 3 5 5 4 2 2 2 2 1 2 2 3 3 3 3 3 3 4 4 3
0 0 0 0 0 0 0 0 0 0 0 0 1 1 0 1 1 2 2 2 1 1 1 2 3 5 5 4 3 2 2 2 2 2 2 3 3 3 3 3 3 3 3 3
0 0 0 0 0 0 0 0 0 0 0 0 0 0 0 0 1 1 2 2 2 2 2 2 4 4 4 3 3 3 3 2 2 2 3 3 3 3 3 3 2 2 2 2
0 0 0 0 0 0 0 0 0 0 0 0 0 0 0 0 0 1 1 2 1 2 2 2 3 4 4 3 3 3 3 3 2 2 3 3 4 4 3 3 2 2 2 1
0 0 0 0 0 0 0 0 0 0 0 0 0 0 0 0 0 1 2 2 2 2 2 2 3 3 3 3 3 3 3 3 2 3 4 4 5 4 4 3 2 1 1 1
0 0 0 0 0 0 0 0 0 0 0 0 0 0 0 0 1 2 4 4 3 2 2 2 3 3 3 3 3 3 4 3 3 3 4 6 6 5 4 3 2 2 1 1
0 0 0 0 0 0 0 0 0 0 0 0 0 0 0 0 1 2 4 5 5 4 3 2 3 3 3 3 3 3 4 3 4 5 7 7 7 5 3 3 3 2 1 1
0 0 0 0 0 0 0 0 0 0 0 0 0 0 0 1 2 3 3 4 5 4 3 3 3 3 4 3 3 3 4 4 5 7 9 9 7 4 3 3 3 2 1 1
0 0 0 0 0 0 0 0 0 0 0 0 0 0 1 2 2 3 3 3 3 2 2 2 3 3 3 3 3 3 4 5 7 9 11 9 6 4 3 4 3 2 2 2
0 0 0 0 0 0 0 0 0 0 0 0 0 0 1 2 3 3 2 2 2 1 2 2 2 2 3 3 4 5 6 8 9 10 10 7 5 4 4 4 4 3 3 3
0 0 0 0 0 0 0 0 0 0 0 0 0 0 1 3 3 2 2 2 2 2 2 2 2 3 3 4 6 8 8 8 8 9 9 7 6 5 5 4 4 4 4 4
0 0 0 0 0 0 0 0 0 0 0 0 0 0 1 2 2 2 2 2 2 2 2 3 4 4 5 6 7 7 6 6 6 8 9 8 7 6 4 3 3 4 4 4
0 0 0 0 0 0 0 0 0 0 0 0 0 1 1 2 2 3 4 4 3 3 3 5 6 7 7 7 6 6 5 5 7 10 11 11 9 6 4 3 3 4 4 5
0 0 0 0 0 0 0 0 0 0 0 0 0 1 1 2 2 3 4 4 4 4 5 7 8 8 7 7 6 7 7 9 11 13 14 12 8 5 4 4 4 5 5 5
0 0 0 0 0 0 0 0 0 0 0 0 0 1 2 3 4 5 5 5 5 5 6 7 8 8 7 6 7 8 9 11 14 15 14 12 8 6 6 6 6 6 5 4
0 0 0 0 0 0 0 0 0 0 0 0 0 1 4 7 9 8 7 6 5 5 5 6 7 7 6 6 6 8 10 13 14 14 12 10 8 8 8 8 7 6 4 4
0 0 0 0 0 0 0 0 0 0 0 1 1 3 6 9 11 9 7 6 5 5 5 6 6 6 6 5 6 8 10 12 13 11 9 7 8 9 8 6 5 4 4 4
0 0 0 0 0 0 0 0 1 1 1 2 3 6 8 9 9 8 7 6 5 5 6 7 7 7 7 7 8 9 10 10 9 8 6 5 5 6 5 3 3 3 4 4
0 0 0 0 0 0 0 1 1 2 2 3 5 7 7 7 7 6 5 5 5 6 9 9 9 9 8 8 9 10 9 8 7 5 4 3 3 3 2 2 2 3 4 4
0 0 0 0 0 0 1 1 2 2 2 2 4 5 5 5 4 4 4 4 5 8 11 12 11 10 9 8 8 8 8 7 5 4 3 2 2 2 2 2 2 3 4 4
0 0 0 0 0 0 1 1 1 1 1 1 1 2 3 3 3 3 3 4 7 11 13 13 11 10 8 7 7 7 6 6 5 4 3 2 1 1 2 2 3 3 4 6
0 0 0 0 0 0 1 1 1 1 0 0 1 1 2 3 4 4 5 6 9 12 12 11 9 8 7 6 6 6 6 6 5 4 3 2 2 2 2 3 3 3 5 7
0 0 1 1 1 0 1 1 1 1 0 1 1 2 3 4 4 5 5 6 8 9 9 8 7 6 6 5 5 6 6 6 5 5 4 4 4 4 4 4 4 4 6 8
0 1 2 2 1 1 1 1 1 1 1 1 2 3 4 5 5 5 6 6 6 6 7 7 7 7 6 6 6 5 6 6 6 7 7 6 7 7 6 5 4 4 6 8
0 1 2 2 2 2 1 1 1 1 2 3 4 5 6 5 5 5 6 6 6 6 7 8 8 8 8 8 7 6 6 6 7 8 8 8 8 8 7 6 5 4 5 7
0 1 1 2 2 2 1 2 2 2 3 3 5 7 7 5 5 5 5 5 5 6 8 9 9 9 9 9 8 7 7 7 7 8 8 7 8 8 8 8 6 4 5 7

GEFSCGP_con_maxscp_330.txt.gz
SCP
0 0 0 0 0 0 0 0 0 0 0 0 0 0 0 0 0 1 0 0 0 0 0 0 1 2 3 2 2 1 1 1 1 1 1 0 0 0 0 0 0 1 1 1
0 0 0 0 0 0 0 0 0 0 0 0 0 0 0 0 0 0 0 0 0 0 0 1 1 2 3 2 2 1 1 1 1 1 1 1 0 0 1 1 1 1 1 1
0 0 0 0 0 0 0 0 0 0 0 0 0 0 0 0 0 0 0 0 0 0 1 1 1 2 2 2 2 1 1 1 1 1 1 1 1 1 2 2 1 1 1 1
0 0 0 0 0 0 0 0 0 0 0 0 0 0 0 0 0 0 0 0 0 0 1 1 1 2 2 2 2 1 1 1 1 1 1 1 1 2 3 3 2 2 1 1
0 0 0 0 0 0 0 0 0 0 0 0 0 0 0 0 0 0 0 0 0 0 1 1 1 2 2 2 2 1 1 1 1 1 1 1 2 4 5 5 3 1 1 1
0 0 0 0 0 0 0 0 0 0 0 0 0 0 0 0 0 0 0 1 1 1 1 1 1 2 2 2 2 1 1 1 1 1 1 2 3 5 6 5 3 1 1 1
0 0 0 0 0 0 0 0 0 0 0 0 0 0 0 0 0 0 1 1 1 1 1 1 1 1 1 1 1 1 1 1 1 1 2 2 3 5 5 4 2 1 1 1
0 0 0 0 0 0 0 0 0 0 0 0 0 0 1 1 1 1 2 2 2 1 1 1 1 1 1 1 1 1 1 2 2 2 3 3 3 4 4 3 2 1 1 1
0 0 0 0 0 0 0 0 0 0 0 0 0 1 1 1 2 2 2 2 2 1 1 1 1 1 1 1 1 1 2 2 4 4 4 3 3 3 3 2 2 2 1 1
0 0 0 0 0 0 0 0 0 0 0 0 0 1 1 1 2 2 2 2 2 2 1 1 1 1 1 1 1 2 2 3 4 4 3 2 2 2 2 2 3 3 2 2
0 0 0 0 0 0 0 0 0 0 0 0 0 0 1 1 1 1 1 1 2 2 1 1 1 1 1 1 1 2 3 3 3 2 2 2 2 2 2 3 3 3 3 2
0 0 0 0 0 0 0 0 0 0 0 0 0 0 0 1 1 1 1 1 2 1 1 1 1 1 2 2 2 3 3 3 2 2 2 2 2 2 2 2 3 3 3 2
0 0 0 0 0 0 0 0 0 0 0 0 0 0 0 0 1 1 1 2 2 1 1 1 1 2 3 3 2 3 4 3 2 2 2 2 2 2 2 3 3 3 2 2
0 0 0 0 0 0 0 0 0 0 0 0 0 0 0 0 1 1 1 2 2 2 2 2 2 2 2 2 3 3 4 3 3 3 3 3 3 3 4 4 4 3 3 3
0 0 0 0 0 0 0 0 0 0 0 0 0 0 0 0 1 1 2 2 3 2 2 2 2 2 2 2 3 3 4 3 3 3 3 3 3 4 5 5 4 3 3 3
0 0 0 0 0 0 0 0 0 0 0 0 0 0 0 1 2 2 2 3 3 3 3 3 3 2 2 2 3 3 4 4 3 3 3 3 4 4 4 4 4 4 4 3
0 0 0 0 0 0 0 0 0 0 0 0 0 0 1 2 3 3 3 3 3 4 4 4 4 3 2 2 3 3 4 4 3 2 2 3 3 4 4 3 3 3 3 3
0 0 0 0 0 0 0 0 1 1 1 1 1 1 2 3 3 3 3 3 4 5 5 5 5 3 3 3 3 3 4 3 2 2 2 2 3 3 3 2 2 2 2 2
0 0 0 0 0 0 0 0 1 2 2 1 1 1 2 3 3 3 3 3 4 5 6 6 5 3 2 3 3 3 3 3 2 2 2 2 3 3 2 2 2 1 1 1
0 0 0 0 0 0 0 0 1 1 2 2 2 2 2 2 2 2 2 3 4 5 6 5 3 3 3 4 4 4 4 3 3 3 3 3 3 3 2 2 1 1 1 1
0 0 0 0 0 0 0 0 0 1 1 2 2 2 1 1 2 1 2 2 3 5 5 3 3 3 4 5 6 6 5 4 3 3 3 4 3 2 2 1 1 1 1 1
0 0 0 0 0 0 0 0 0 0 1 1 1 1 1 1 1 1 2 2 3 4 3 3 3 4 5 6 6 6 4 3 2 2 3 3 3 2 2 1 1 1 1 1
0 0 0 0 0 0 0 0 0 0 0 0 0 0 0 1 1 1 2 2 3 3 2 2 3 4 4 4 4 4 3 2 2 2 3 3 3 2 2 1 1 1 2 2
0 0 0 0 0 1 0 0 0 0 0 0 0 0 1 1 1 1 2 2 2 2 1 2 2 2 2 3 3 3 2 2 1 1 2 3 3 3 2 1 1 1 2 2
0 0 0 1 1 1 1 1 1 0 0 0 1 1 1 1 1 2 2 2 2 1 1 1 1 1 1 3 3 3 3 2 2 1 2 3 3 2 2 2 2 1 1 1
0 0 0 1 1 1 1 1 1 1 1 1 1 1 1 1 2 2 2 2 2 2 2 1 1 0 1 3 3 3 3 3 2 2 2 2 2 2 2 2 2 1 1 2

GEFSCGP_con_maxscp_336.txt.gz
SCP
0 0 0 0 0 0 0 0 0 0 0 0 1 1 1 1 1 1 1 1 1 0 0 0 0 1 2 2 2 2 1 1 1 1 1 1 1 1 1 2 2 3 3 3
0 0 0 0 0 0 0 0 0 0 0 0 1 1 1 1 1 1 1 1 1 1 0 0 1 1 1 2 2 2 1 1 1 1 1 1 1 1 1 2 3 3 4 4
0 0 0 0 0 0 0 0 0 0 0 0 1 1 1 1 1 1 1 1 1 1 1 1 1 1 1 1 2 2 2 2 2 2 2 2 2 2 2 3 4 5 6 6
0 0 0 0 0 0 0 0 0 0 0 0 0 0 1 1 1 1 1 1 1 1 1 1 1 1 1 1 1 2 2 3 3 4 4 4 4 4 4 6 7 8 8 7
0 0 0 0 0 0 0 0 0 0 0 0 0 0 1 1 1 1 1 1 1 1 2 2 3 2 2 2 2 3 4 5 6 6 6 6 6 7 8 11 13 12 10 8
0 0 0 0 0 0 0 0 0 0 0 0 0 0 1 1 1 1 1 1 1 1 2 3 4 3 3 3 3 3 5 6 7 7 7 7 8 9 12 16 16 12 9 7
0 0 0 0 0 0 0 0 0 0 0 0 0 0 1 1 1 1 1 1 1 1 2 3 3 3 2 3 3 3 3 5 5 5 6 6 7 9 12 14 13 9 5 4
0 0 0 0 0 0 0 0 0 0 0 0 0 1 1 2 1 1 1 1 1 1 2 2 2 2 2 2 2 3 3 4 5 5 5 5 5 5 7 9 8 5 3 2
0 0 0 0 0 0 0 0 0 0 0 0 0 1 1 2 2 1 1 1 1 1 2 2 2 2 2 3 4 5 5 5 6 6 6 5 4 3 4 6 6 4 4 3
0 0 0 0 0 0 0 0 0 0 0 0 0 1 1 2 2 2 2 1 1 1 2 2 2 2 3 4 5 6 5 4 4 5 4 3 3 3 3 4 5 5 5 6
0 0 0 0 0 0 0 0 0 0 0 0 0 0 1 2 2 2 1 1 1 1 2 2 2 2 3 3 4 4 4 3 3 3 3 2 2 2 3 4 5 6 7 7
0 0 0 0 0 0 0 0 0 0 0 0 0 1 1 2 2 2 2 2 2 2 2 2 2 3 4 4 4 4 5 4 3 3 3 3 3 3 3 4 5 6 7 8
0 0 0 0 0 0 0 0 0 0 0 0 0 1 1 2 2 2 2 3 3 2 2 2 3 4 5 5 5 6 5 4 3 3 3 4 4 4 3 4 4 6 7 7
0 0 0 0 0 0 0 0 0 0 0 0 0 1 1 2 2 2 3 4 4 3 3 3 4 5 6 6 6 5 5 4 4 3 4 4 5 4 4 3 3 4 5 5
0 0 0 0 0 0 0 0 0 0 0 0 0 1 1 2 2 3 4 5 5 4 4 4 5 5 6 5 5 5 5 5 4 4 4 4 5 5 4 3 3 3 4 4
1 1 0 0 0 0 0 0 0 0 0 0 0 1 1 2 3 4 5 5 5 5 4 4 4 4 4 5 5 6 6 5 5 4 4 4 5 5 5 4 3 3 4 4
1 1 1 0 0 0 0 0 0 0 0 0 0 1 2 3 4 4 4 5 5 4 3 3 2 2 3 4 6 6 6 6 5 5 4 5 5 5 5 4 4 4 4 4
1 1 1 1 0 0 0 0 0 0 0 0 1 1 3 4 4 3 3 3 3 3 3 2 2 3 4 6 7 7 7 6 5 5 5 5 5 5 5 5 5 4 4 4
1 1 1 1 0 1 0 0 0 0 0 1 1 2 3 4 3 3 2 2 3 3 3 3 3 5 7 9 9 8 6 6 6 6 6 6 6 6 6 6 6 5 5 5
1 1 1 0 0 0 0 1 1 1 1 1 2 3 3 3 3 2 2 2 2 3 3 4 5 7 9 10 8 7 7 7 7 7 7 6 6 6 6 6 6 6 7 7
1 1 1 0 0 0 1 1 1 1 2 2 2 3 3 3 3 3 3 2 2 3 3 4 6 8 9 8 7 6 7 9 10 11 10 8 7 6 6 5 6 7 8 8
1 1 1 1 0 1 1 1 1 2 2 3 3 3 3 3 4 3 3 2 2 3 3 4 6 7 6 6 5 6 7 10 12 14 14 11 8 6 5 5 6 7 7 7
1 1 1 1 1 1 2 2 2 2 2 2 3 3 3 3 3 3 3 3 3 4 4 4 5 5 5 5 5 5 7 8 11 13 15 12 8 6 5 5 6 7 6 6
1 1 1 2 2 2 2 2 2 2 2 2 2 2 2 2 2 3 3 3 4 4 4 4 5 5 5 5 5 5 6 7 8 10 11 11 8 6 5 5 5 5 5 4
1 1 2 2 3 3 3 2 2 2 2 1 2 2 2 2 2 2 3 3 3 3 3 4 4 4 4 5 5 6 7 7 7 8 9 9 8 6 4 4 4 3 3 3
1 2 3 3 3 3 3 2 2 2 2 2 2 2 2 2 2 2 2 2 2 2 3 3 3 3 3 5 6 7 7 8 8 8 8 8 7 5 4 3 3 2 2 1

GEFSCGP_con_maxscp_342.txt.gz
SCP
0 0 0 0 0 0 0 0 0 0 0 0 1 1 1 1 1 2 3 3 2 2 2 2 2 2 2 3 4 4 3 3 3 4 4 4 3 3 3 3 3 4 5 6
0 0 0 0 0 0 0 0 0 0 0 0 0 1 1 1 2 2 3 3 3 3 3 3 2 2 3 3 4 4 4 4 4 5 5 5 4 4 4 4 4 6 7 8
0 0 0 0 0 0 0 0 0 0 0 0 0 1 1 2 2 2 3 3 3 4 4 4 3 3 3 4 4 5 5 6 6 7 6 6 6 6 5 5 6 8 11 12
0 0 0 0 0 0 0 0 0 0 0 1 1 1 2 2 2 2 3 3 3 3 3 3 3 3 3 4 4 6 7 8 9 9 8 7 7 7 7 6 7 9 12 13
0 0 0 0 0 0 0 0 0 0 0 1 1 1 2 2 3 3 3 3 3 2 3 4 5 6 7 6 5 6 8 10 11 11 11 10 9 7 7 6 6 9 11 12
0 0 0 0 0 0 0 0 0 0 0 1 1 1 1 2 3 3 3 3 2 2 3 5 7 10 10 8 6 7 9 10 11 11 12 11 10 8 7 5 6 8 10 11
0 0 0 0 0 0 0 0 0 0 0 0 1 1 1 2 3 3 3 2 2 2 3 4 6 9 9 9 9 10 11 11 10 10 11 11 10 8 6 5 6 7 8 10
0 0 0 0 0 0 0 0 0 0 0 1 1 1 2 2 2 2 2 2 1 2 3 5 5 6 7 9 10 11 11 10 9 10 12 11 9 7 5 5 5 6 7 8
0 0 0 0 0 0 0 0 0 0 0 0 1 1 2 1 1 2 2 2 2 3 5 5 5 4 5 6 7 9 9 8 7 9 11 11 10 9 7 6 6 5 6 7
0 0 0 0 0 0 0 0 0 0 0 0 1 2 1 1 1 1 2 2 3 4 5 5 4 3 3 4 5 6 7 6 6 6 7 8 9 11 11 9 8 7 7 8
0 0 0 0 0 0 0 0 0 0 0 0 1 1 1 1 1 1 2 2 3 4 4 3 3 2 3 5 6 7 6 5 5 4 4 5 6 9 11 12 11 10 10 9
0 0 0 0 0 0 0 0 0 0 0 0 1 1 1 1 1 1 2 2 3 4 4 3 2 3 4 6 7 7 6 6 5 5 4 4 5 6 9 11 13 14 13 12
0 0 0 0 0 0 0 0 0 0 0 0 1 1 1 1 1 2 2 2 3 3 4 4 5 6 9 11 10 9 8 8 7 6 6 6 6 6 7 9 12 15 15 15
0 0 0 0 0 0 0 0 0 0 0 0 1 1 1 1 2 2 3 3 4 5 6 7 9 11 12 14 14 13 11 9 8 7 7 7 7 6 6 7 10 14 15 15
0 0 0 0 0 0 0 0 0 0 0 0 1 1 2 2 2 3 4 5 6 7 8 9 11 11 10 11 14 15 14 12 11 10 9 9 8 7 7 7 9 12 14 14
0 1 1 0 0 0 0 0 0 0 0 0 1 1 2 3 3 4 5 6 7 7 8 8 9 8 7 8 12 15 17 16 16 14 13 11 9 8 8 8 9 11 13 14
1 1 1 1 1 1 1 1 0 0 0 0 1 1 2 3 3 4 5 5 6 7 7 7 6 6 6 7 10 15 18 19 18 15 13 12 10 9 9 9 10 11 12 13
1 1 1 1 1 1 1 1 1 1 1 1 1 1 2 3 4 5 6 6 6 6 6 6 5 5 5 6 9 14 18 20 19 15 13 12 12 11 10 11 12 12 12 12
0 1 1 1 1 1 1 2 1 1 2 2 3 2 2 3 5 6 7 7 6 6 6 5 4 5 7 8 10 14 17 19 18 14 13 15 15 13 12 13 14 14 13 11
0 0 1 1 1 1 2 2 2 2 3 4 4 4 3 4 6 7 7 7 6 6 5 5 5 6 8 10 13 16 17 16 13 12 14 17 18 16 15 14 14 14 11 9
0 1 1 1 1 1 2 2 3 3 3 4 4 4 5 6 6 8 8 7 6 6 6 5 6 8 10 13 17 18 15 11 9 9 12 17 19 17 16 15 13 11 9 7
1 1 2 2 2 2 2 3 4 4 4 3 3 4 6 7 8 9 9 7 6 7 7 8 9 11 12 14 15 14 10 7 6 7 11 16 17 14 13 12 10 8 6 5
2 2 2 2 2 2 2 3 4 4 3 3 3 4 6 7 8 9 8 7 7 7 8 9 11 12 13 12 10 8 6 5 5 7 11 14 12 10 9 8 7 6 5 5
2 1 1 2 2 2 2 3 3 3 3 3 3 4 6 8 9 9 8 7 7 7 8 8 10 10 9 8 7 5 5 5 6 7 9 10 9 8 7 6 4 4 4 4
1 1 1 2 2 3 3 2 2 2 2 3 3 5 7 11 12 9 7 6 6 6 7 7 7 6 6 5 4 4 4 5 5 6 7 9 9 8 6 4 3 3 3 3
1 1 1 2 3 5 4 3 2 2 3 3 5 6 9 13 12 9 7 6 5 6 6 6 5 5 4 4 4 4 4 4 4 5 6 9 10 8 5 3 2 2 2 2

GEFSCGP_con_maxscp_348.txt.gz
SCP
0 0 0 0 0 0 0 0 0 0 0 1 1 1 2 2 1 1 1 1 2 2 2 1 1 2 1 1 1 1 1 2 2 2 2 2 1 1 1 1 1 1 1 1
0 0 0 0 0 0 0 0 0 0 1 1 1 1 1 2 1 1 1 2 2 2 2 1 1 2 2 2 1 1 2 2 2 2 2 2 2 2 1 1 1 1 1 1
0 0 0 0 0 0 0 0 0 1 1 1 1 1 1 1 2 1 2 2 3 3 2 2 1 1 2 2 2 2 2 2 3 3 3 3 3 3 3 2 2 1 1 1
0 0 0 0 0 0 0 0 0 1 1 1 1 1 1 2 2 3 3 3 3 3 3 2 2 2 2 3 3 3 3 3 4 4 4 4 5 4 4 3 3 2 1 2
0 0 0 0 0 0 0 0 0 1 1 1 0 1 1 2 3 5 5 4 3 3 3 3 3 3 4 4 5 5 4 4 4 4 4 5 5 4 4 3 3 2 2 2
0 0 0 0 0 0 0 0 0 0 0 0 0 0 1 2 5 7 7 5 3 2 3 5 5 5 5 5 6 6 5 4 4 4 4 4 4 4 3 3 2 2 2 1
0 0 0 0 0 0 0 0 0 0 0 0 0 0 1 3 6 8 7 5 3 2 4 6 6 5 4 4 4 4 4 4 4 4 4 4 3 3 3 2 2 2 2 2
0 0 0 0 0 0 0 0 0 0 0 0 0 1 1 3 7 7 5 3 2 3 4 5 4 3 2 2 3 3 3 3 4 4 4 4 4 3 3 3 3 3 3 3
0 0 0 0 0 0 0 0 0 0 0 0 0 1 2 4 5 5 3 2 2 3 3 3 3 3 2 2 2 3 4 4 4 4 4 4 4 4 4 4 4 4 4 4
0 0 0 0 0 0 0 0 0 0 0 0 0 1 2 3 4 3 2 2 2 2 2 3 3 3 2 2 3 4 4 4 4 3 3 3 3 3 3 4 4 4 4 4
0 0 0 0 0 0 0 0 0 0 0 0 0 1 1 2 3 2 2 2 2 2 2 3 3 3 2 3 3 4 4 3 3 2 2 3 3 3 3 3 3 3 3 4
0 0 0 0 0 0 0 0 0 0 0 0 0 1 1 2 3 2 2 2 2 2 2 2 3 2 2 3 4 4 3 2 2 3 3 3 3 3 3 3 3 3 3 3
0 0 0 0 0 0 0 0 0 0 0 0 0 1 2 3 3 3 3 3 3 2 2 2 2 2 2 3 3 3 2 2 3 4 4 4 4 3 3 3 3 3 3 3
0 0 0 0 0 0 0 0 0 0 0 0 0 1 2 3 3 3 4 4 3 3 3 2 2 2 2 2 2 2 2 2 3 4 5 5 5 4 4 3 3 3 3 3
0 0 0 0 0 0 0 0 0 0 0 0 1 1 2 3 3 3 4 4 3 3 2 2 2 3 3 2 2 2 2 2 2 3 5 6 6 5 5 4 4 4 4 4
0 0 0 0 0 0 0 0 0 0 0 1 1 2 2 3 3 4 4 4 4 4 3 3 3 3 3 2 2 2 3 3 3 4 5 6 7 7 7 7 7 6 6 5
0 0 0 0 0 0 1 1 1 0 1 1 1 2 3 5 6 6 5 5 5 5 5 5 4 4 3 2 3 4 4 5 5 6 6 7 8 9 10 10 9 8 7 7
0 0 0 0 0 0 1 1 1 1 1 1 1 3 6 8 8 7 6 6 7 6 5 5 4 3 3 3 3 4 5 6 6 6 7 8 9 9 10 11 11 10 9 8
0 0 0 0 0 0 1 1 1 1 1 1 2 5 9 9 8 7 6 6 6 5 4 3 3 3 3 3 4 4 5 5 5 6 7 7 7 7 8 11 12 13 12 11
0 0 0 0 0 0 0 0 0 1 1 1 3 6 7 6 5 4 4 5 5 4 3 3 3 3 3 3 4 4 5 5 4 5 6 6 6 6 7 9 12 13 13 13
0 0 0 0 0 0 1 1 1 1 1 2 3 4 4 3 3 3 3 3 3 3 4 4 3 3 3 3 3 4 4 3 3 4 6 7 8 8 8 8 9 11 11 11
0 0 0 0 0 1 1 1 1 1 2 3 4 3 3 3 3 3 3 3 3 3 3 4 4 3 2 2 2 3 3 2 2 3 6 7 8 8 8 8 8 8 8 8
0 0 0 0 1 1 1 1 1 2 3 3 3 3 3 3 3 3 4 4 4 3 3 3 3 3 2 2 2 2 2 2 2 3 5 6 6 6 7 8 9 8 7 6
0 0 1 1 2 2 2 1 2 2 3 3 2 3 4 5 5 5 5 6 6 4 3 3 3 3 2 2 2 2 3 3 2 3 5 6 5 4 5 7 8 8 7 6
0 1 2 3 3 3 2 1 2 2 3 3 2 3 7 10 10 9 8 7 7 5 3 3 3 3 2 2 3 3 3 3 3 3 5 6 4 2 3 5 5 5 5 5
1 1 2 3 3 2 1 1 2 2 3 3 3 5 10 14 14 11 8 7 6 4 3 3 3 3 3 3 4 4 4 3 3 3 4 5 3 2 2 2 2 2 3 3